| time (UTC) | temp F | wind direction | speed MPH | gust MPH | rain 1hr in | rain 24hr in | rain mn in | humidity % | barometer mb |
| 20260903174605 | 86 | 134 | 8.0 | 12.0 | 0.00 | 0.00 | 0.00 | 21 | 1020.0 |
| 20260903174505 | 87 | 79 | 8.0 | 12.0 | 0.00 | 0.00 | 0.00 | 22 | 1019.9 |
| 20260903174426 | 87 | 101 | 7.0 | 12.0 | 0.00 | 0.00 | 0.00 | 21 | 1019.9 |
| 20260903174405 | 87 | 66 | 7.0 | 12.0 | 0.00 | 0.00 | 0.00 | 21 | 1019.9 |
| 20260903174305 | 87 | 101 | 7.0 | 12.0 | 0.00 | 0.00 | 0.00 | 22 | 1019.9 |
| 20260903174205 | 87 | 97 | 6.0 | 12.0 | 0.00 | 0.00 | 0.00 | 24 | 1019.9 |
| 20260903174058 | 87 | 84 | 6.0 | 12.0 | 0.00 | 0.00 | 0.00 | 23 | 1019.9 |
| 20260903173958 | 87 | 105 | 6.0 | 12.0 | 0.00 | 0.00 | 0.00 | 23 | 1020.0 |
| 20260903173924 | 87 | 104 | 6.0 | 12.0 | 0.00 | 0.00 | 0.00 | 23 | 1020.0 |
| 20260903173905 | 87 | 86 | 6.0 | 12.0 | 0.00 | 0.00 | 0.00 | 23 | 1020.0 |
| 20260903173658 | 87 | 98 | 6.0 | 11.0 | 0.00 | 0.00 | 0.00 | 26 | 1020.0 |
| 20260903173552 | 87 | 109 | 6.0 | 11.0 | 0.00 | 0.00 | 0.00 | 24 | 1020.0 |
| 20260903173528 | 87 | 111 | 5.0 | 11.0 | 0.00 | 0.00 | 0.00 | 25 | 1020.0 |
| 20260903173353 | 87 | 103 | 5.0 | 11.0 | 0.00 | 0.00 | 0.00 | 24 | 1020.0 |
| 20260903173252 | 87 | 76 | 5.0 | 11.0 | 0.00 | 0.00 | 0.00 | 27 | 1020.0 |
| 20260903173153 | 86 | 75 | 6.0 | 11.0 | 0.00 | 0.00 | 0.00 | 27 | 1020.0 |
| 20260903173047 | 86 | 117 | 6.0 | 11.0 | 0.00 | 0.00 | 0.00 | 27 | 1020.0 |
| 20260903172946 | 86 | 136 | 6.0 | 11.0 | 0.00 | 0.00 | 0.00 | 24 | 1020.0 |
| 20260903172922 | 86 | 139 | 6.0 | 11.0 | 0.00 | 0.00 | 0.00 | 24 | 1020.0 |
| 20260903172853 | 86 | 122 | 6.0 | 11.0 | 0.00 | 0.00 | 0.00 | 26 | 1020.0 |
| 20260903172646 | 85 | 105 | 6.0 | 11.0 | 0.00 | 0.00 | 0.00 | 27 | 1020.0 |
| 20260903172548 | 85 | 101 | 6.0 | 11.0 | 0.00 | 0.00 | 0.00 | 27 | 1020.0 |
| 20260903172422 | 85 | 158 | 6.0 | 11.0 | 0.00 | 0.00 | 0.00 | 26 | 1020.0 |
| 20260903172340 | 85 | 96 | 6.0 | 11.0 | 0.00 | 0.00 | 0.00 | 27 | 1020.0 |
| 20260903172241 | 85 | 148 | 6.0 | 10.0 | 0.00 | 0.00 | 0.00 | 26 | 1020.0 |
| 20260903172141 | 84 | 96 | 6.0 | 12.0 | 0.00 | 0.00 | 0.00 | 26 | 1020.0 |
| 20260903172037 | 84 | 135 | 6.0 | 12.0 | 0.00 | 0.00 | 0.00 | 25 | 1020.0 |
| 20260903171936 | 84 | 111 | 6.0 | 12.0 | 0.00 | 0.00 | 0.00 | 25 | 1020.0 |
| 20260903171922 | 84 | 114 | 6.0 | 12.0 | 0.00 | 0.00 | 0.00 | 25 | 1020.0 |
| 20260903171836 | 84 | 84 | 5.0 | 12.0 | 0.00 | 0.00 | 0.00 | 26 | 1020.0 |
| 20260903171736 | 84 | 109 | 5.0 | 12.0 | 0.00 | 0.00 | 0.00 | 27 | 1020.0 |
| 20260903171633 | 84 | 62 | 6.0 | 12.0 | 0.00 | 0.00 | 0.00 | 27 | 1020.2 |
| 20260903171531 | 84 | 100 | 6.0 | 12.0 | 0.00 | 0.00 | 0.00 | 27 | 1020.2 |
| 20260903171429 | 84 | 85 | 6.0 | 13.0 | 0.00 | 0.00 | 0.00 | 26 | 1020.2 |
| 20260903171422 | 84 | 109 | 6.0 | 13.0 | 0.00 | 0.00 | 0.00 | 26 | 1020.2 |
| 20260903171329 | 84 | 86 | 6.0 | 13.0 | 0.00 | 0.00 | 0.00 | 27 | 1020.2 |
| 20260903171228 | 84 | 117 | 7.0 | 13.0 | 0.00 | 0.00 | 0.00 | 27 | 1020.2 |
| 20260903171128 | 84 | 101 | 7.0 | 13.0 | 0.00 | 0.00 | 0.00 | 25 | 1020.2 |
| 20260903171036 | 84 | 98 | 7.0 | 13.0 | 0.00 | 0.00 | 0.00 | 24 | 1020.2 |
| 20260903171029 | 84 | 84 | 6.0 | 13.0 | 0.00 | 0.00 | 0.00 | 24 | 1020.0 |
| 20260903170827 | 84 | 153 | 7.0 | 13.0 | 0.00 | 0.00 | 0.00 | 24 | 1020.0 |
| 20260903170726 | 84 | 117 | 6.0 | 13.0 | 0.00 | 0.00 | 0.00 | 24 | 1020.2 |
| 20260903170627 | 84 | 115 | 6.0 | 13.0 | 0.00 | 0.00 | 0.00 | 24 | 1020.2 |
| 20260903170526 | 84 | 105 | 6.0 | 13.0 | 0.00 | 0.00 | 0.00 | 25 | 1020.2 |
| 20260903170429 | 84 | 137 | 6.0 | 12.0 | 0.00 | 0.00 | 0.00 | 25 | 1020.0 |
| 20260903170422 | 84 | 141 | 6.0 | 12.0 | 0.00 | 0.00 | 0.00 | 25 | 1020.0 |
| 20260903170333 | 84 | 63 | 5.0 | 12.0 | 0.00 | 0.00 | 0.00 | 26 | 1020.2 |
| 20260903170127 | 84 | 69 | 5.0 | 12.0 | 0.00 | 0.00 | 0.00 | 26 | 1020.2 |
| 20260903170027 | 85 | 103 | 5.0 | 11.0 | 0.00 | 0.00 | 0.00 | 25 | 1020.2 |
| 20260903165922 | 85 | 134 | 5.0 | 11.0 | 0.00 | 0.00 | 0.00 | 28 | 1020.2 |
| 20260903165833 | 85 | 123 | 5.0 | 11.0 | 0.00 | 0.00 | 0.00 | 26 | 1020.2 |
| 20260903165624 | 85 | 119 | 5.0 | 11.0 | 0.00 | 0.00 | 0.00 | 26 | 1020.2 |
| 20260903165524 | 85 | 153 | 5.0 | 11.0 | 0.00 | 0.00 | 0.00 | 27 | 1020.2 |
| 20260903165424 | 85 | 137 | 5.0 | 9.0 | 0.00 | 0.00 | 0.00 | 29 | 1020.2 |
| 20260903165334 | 84 | 104 | 5.0 | 9.0 | 0.00 | 0.00 | 0.00 | 28 | 1020.2 |
| 20260903165021 | 85 | 86 | 4.0 | 9.0 | 0.00 | 0.00 | 0.00 | 24 | 1020.2 |
| 20260903164923 | 85 | 90 | 4.0 | 9.0 | 0.00 | 0.00 | 0.00 | 27 | 1020.2 |
| 20260903164917 | 85 | 120 | 4.0 | 8.0 | 0.00 | 0.00 | 0.00 | 27 | 1020.2 |
| 20260903164820 | 85 | 71 | 4.0 | 9.0 | 0.00 | 0.00 | 0.00 | 25 | 1020.2 |
| 20260903164727 | 85 | 115 | 4.0 | 9.0 | 0.00 | 0.00 | 0.00 | 26 | 1020.3 |
| 20260903164528 | 85 | 115 | 4.0 | 9.0 | 0.00 | 0.00 | 0.00 | 26 | 1020.2 |
| 20260903164414 | 85 | 111 | 4.0 | 9.0 | 0.00 | 0.00 | 0.00 | 26 | 1020.3 |
| 20260903164318 | 85 | 138 | 3.0 | 9.0 | 0.00 | 0.00 | 0.00 | 27 | 1020.3 |
| 20260903164216 | 85 | 186 | 3.0 | 9.0 | 0.00 | 0.00 | 0.00 | 24 | 1020.3 |
| 20260903164116 | 85 | 91 | 3.0 | 9.0 | 0.00 | 0.00 | 0.00 | 25 | 1020.2 |
| 20260903164016 | 85 | 135 | 3.0 | 9.0 | 0.00 | 0.00 | 0.00 | 26 | 1020.3 |
| 20260903163918 | 85 | 152 | 3.0 | 9.0 | 0.00 | 0.00 | 0.00 | 27 | 1020.3 |
| 20260903163911 | 85 | 153 | 3.0 | 9.0 | 0.00 | 0.00 | 0.00 | 27 | 1020.3 |
| 20260903163816 | 85 | 96 | 3.0 | 7.0 | 0.00 | 0.00 | 0.00 | 25 | 1020.3 |
| 20260903163714 | 85 | 98 | 3.0 | 7.0 | 0.00 | 0.00 | 0.00 | 24 | 1020.3 |
| 20260903163614 | 85 | 108 | 2.0 | 7.0 | 0.00 | 0.00 | 0.00 | 29 | 1020.3 |
| 20260903163523 | 84 | 119 | 3.0 | 7.0 | 0.00 | 0.00 | 0.00 | 32 | 1020.3 |
| 20260903163516 | 84 | 178 | 3.0 | 7.0 | 0.00 | 0.00 | 0.00 | 29 | 1020.3 |
| 20260903163315 | 84 | 151 | 3.0 | 7.0 | 0.00 | 0.00 | 0.00 | 29 | 1020.2 |
| 20260903163214 | 84 | 130 | 3.0 | 7.0 | 0.00 | 0.00 | 0.00 | 29 | 1020.3 |
| 20260903163112 | 83 | 134 | 3.0 | 7.0 | 0.00 | 0.00 | 0.00 | 29 | 1020.3 |
| 20260903163013 | 83 | 103 | 3.0 | 7.0 | 0.00 | 0.00 | 0.00 | 29 | 1020.3 |
| 20260903162913 | 83 | 123 | 3.0 | 7.0 | 0.00 | 0.00 | 0.00 | 30 | 1020.3 |
| 20260903162819 | 83 | 107 | 3.0 | 7.0 | 0.00 | 0.00 | 0.00 | 30 | 1020.3 |
| 20260903162612 | 83 | 76 | 3.0 | 7.0 | 0.00 | 0.00 | 0.00 | 32 | 1020.3 |
| 20260903162523 | 83 | 142 | 3.0 | 7.0 | 0.00 | 0.00 | 0.00 | 31 | 1020.2 |
| 20260903162516 | 83 | 142 | 3.0 | 7.0 | 0.00 | 0.00 | 0.00 | 33 | 1020.2 |
| 20260903162310 | 82 | 142 | 3.0 | 7.0 | 0.00 | 0.00 | 0.00 | 30 | 1020.3 |
| 20260903162218 | 82 | 122 | 3.0 | 7.0 | 0.00 | 0.00 | 0.00 | 33 | 1020.3 |
| 20260903162010 | 82 | 130 | 3.0 | 7.0 | 0.00 | 0.00 | 0.00 | 31 | 1020.3 |
| 20260903161910 | 82 | 107 | 3.0 | 7.0 | 0.00 | 0.00 | 0.00 | 33 | 1020.3 |
| 20260903161810 | 82 | 119 | 3.0 | 7.0 | 0.00 | 0.00 | 0.00 | 31 | 1020.3 |
| 20260903161710 | 82 | 150 | 3.0 | 7.0 | 0.00 | 0.00 | 0.00 | 30 | 1020.2 |
| 20260903161610 | 81 | 105 | 3.0 | 7.0 | 0.00 | 0.00 | 0.00 | 31 | 1020.3 |
| 20260903161510 | 81 | 109 | 3.0 | 7.0 | 0.00 | 0.00 | 0.00 | 32 | 1020.3 |
| 20260903161412 | 81 | 146 | 3.0 | 7.0 | 0.00 | 0.00 | 0.00 | 32 | 1020.2 |
| 20260903161408 | 81 | 144 | 3.0 | 7.0 | 0.00 | 0.00 | 0.00 | 32 | 1020.2 |
| 20260903161308 | 81 | 134 | 3.0 | 7.0 | 0.00 | 0.00 | 0.00 | 31 | 1020.3 |
| 20260903161209 | 80 | 134 | 3.0 | 7.0 | 0.00 | 0.00 | 0.00 | 30 | 1020.2 |
| 20260903161106 | 80 | 120 | 3.0 | 7.0 | 0.00 | 0.00 | 0.00 | 30 | 1020.2 |
| 20260903161004 | 80 | 94 | 3.0 | 7.0 | 0.00 | 0.00 | 0.00 | 31 | 1020.3 |
| 20260903160907 | 80 | 38 | 3.0 | 8.0 | 0.00 | 0.00 | 0.00 | 31 | 1020.2 |
| 20260903160902 | 80 | 90 | 3.0 | 8.0 | 0.00 | 0.00 | 0.00 | 31 | 1020.2 |
| 20260903160802 | 80 | 70 | 3.0 | 8.0 | 0.00 | 0.00 | 0.00 | 32 | 1020.2 |
| 20260903160702 | 79 | 109 | 3.0 | 8.0 | 0.00 | 0.00 | 0.00 | 33 | 1020.2 |
| 20260903160603 | 79 | 109 | 4.0 | 8.0 | 0.00 | 0.00 | 0.00 | 31 | 1020.3 |
| 20260903160502 | 80 | 111 | 4.0 | 8.0 | 0.00 | 0.00 | 0.00 | 31 | 1020.3 |
| 20260903160408 | 79 | 97 | 4.0 | 8.0 | 0.00 | 0.00 | 0.00 | 34 | 1020.2 |
| 20260903160402 | 79 | 90 | 4.0 | 8.0 | 0.00 | 0.00 | 0.00 | 34 | 1020.2 |
| 20260903160303 | 79 | 92 | 4.0 | 8.0 | 0.00 | 0.00 | 0.00 | 33 | 1020.3 |
| 20260903160200 | 79 | 177 | 4.0 | 10.0 | 0.00 | 0.00 | 0.00 | 33 | 1020.3 |
| 20260903160101 | 79 | 118 | 4.0 | 10.0 | 0.00 | 0.00 | 0.00 | 34 | 1020.3 |
| 20260903160000 | 79 | 111 | 4.0 | 10.0 | 0.00 | 0.00 | 0.00 | 34 | 1020.3 |
| 20260903155908 | 79 | 84 | 4.0 | 10.0 | 0.00 | 0.00 | 0.00 | 34 | 1020.3 |
| 20260903155901 | 79 | 78 | 4.0 | 10.0 | 0.00 | 0.00 | 0.00 | 34 | 1020.3 |
| 20260903155800 | 79 | 102 | 4.0 | 10.0 | 0.00 | 0.00 | 0.00 | 34 | 1020.3 |
| 20260903155700 | 79 | 107 | 5.0 | 10.0 | 0.00 | 0.00 | 0.00 | 34 | 1020.2 |
| 20260903155600 | 79 | 47 | 4.0 | 10.0 | 0.00 | 0.00 | 0.00 | 34 | 1020.3 |
| 20260903155500 | 79 | 98 | 4.0 | 10.0 | 0.00 | 0.00 | 0.00 | 34 | 1020.3 |
| 20260903155410 | 79 | 74 | 4.0 | 10.0 | 0.00 | 0.00 | 0.00 | 33 | 1020.2 |
| 20260903155406 | 79 | 117 | 4.0 | 10.0 | 0.00 | 0.00 | 0.00 | 33 | 1020.2 |
| 20260903155157 | 79 | 105 | 4.0 | 7.0 | 0.00 | 0.00 | 0.00 | 34 | 1020.3 |
| 20260903155056 | 79 | 115 | 4.0 | 8.0 | 0.00 | 0.00 | 0.00 | 32 | 1020.2 |
| 20260903154954 | 79 | 118 | 4.0 | 8.0 | 0.00 | 0.00 | 0.00 | 32 | 1020.2 |
| 20260903154907 | 79 | 118 | 4.0 | 8.0 | 0.00 | 0.00 | 0.00 | 33 | 1020.2 |
| 20260903154854 | 79 | 118 | 4.0 | 8.0 | 0.00 | 0.00 | 0.00 | 33 | 1020.2 |
| 20260903154752 | 79 | 124 | 3.0 | 8.0 | 0.00 | 0.00 | 0.00 | 33 | 1020.3 |
| 20260903154648 | 79 | 109 | 3.0 | 8.0 | 0.00 | 0.00 | 0.00 | 33 | 1020.2 |
| 20260903154553 | 78 | 115 | 3.0 | 8.0 | 0.00 | 0.00 | 0.00 | 34 | 1020.2 |
| 20260903154406 | 78 | 123 | 3.0 | 8.0 | 0.00 | 0.00 | 0.00 | 34 | 1020.2 |
| 20260903154346 | 78 | 107 | 3.0 | 8.0 | 0.00 | 0.00 | 0.00 | 34 | 1020.2 |
| 20260903154247 | 78 | 88 | 3.0 | 8.0 | 0.00 | 0.00 | 0.00 | 34 | 1020.2 |
| 20260903154147 | 78 | 109 | 2.0 | 8.0 | 0.00 | 0.00 | 0.00 | 35 | 1020.3 |
| 20260903154046 | 78 | 128 | 2.0 | 7.0 | 0.00 | 0.00 | 0.00 | 34 | 1020.3 |
| 20260903153946 | 78 | 98 | 2.0 | 6.0 | 0.00 | 0.00 | 0.00 | 34 | 1020.2 |
| 20260903153906 | 78 | 118 | 2.0 | 6.0 | 0.00 | 0.00 | 0.00 | 34 | 1020.2 |
| 20260903153846 | 78 | 118 | 2.0 | 6.0 | 0.00 | 0.00 | 0.00 | 35 | 1020.2 |
| 20260903153746 | 77 | 113 | 2.0 | 6.0 | 0.00 | 0.00 | 0.00 | 35 | 1020.3 |
| 20260903153646 | 77 | 105 | 2.0 | 6.0 | 0.00 | 0.00 | 0.00 | 34 | 1020.2 |
| 20260903153545 | 0 | 101 | 2.0 | 6.0 | 0.00 | 0.00 | 0.00 | 1020.3 | |
| 20260903153445 | 0 | 150 | 2.0 | 6.0 | 0.00 | 0.00 | 0.00 | 1020.3 | |
| 20260903153406 | 0 | 121 | 2.0 | 6.0 | 0.00 | 0.00 | 0.00 | 1020.3 | |
| 20260903153342 | 0 | 115 | 2.0 | 6.0 | 0.00 | 0.00 | 0.00 | 1020.3 | |
| 20260903153247 | 0 | 142 | 2.0 | 6.0 | 0.00 | 0.00 | 0.00 | 1020.3 | |
| 20260903153041 | 0 | 123 | 2.0 | 6.0 | 0.00 | 0.00 | 0.00 | 1020.3 | |
| 20260903152952 | 0 | 115 | 2.0 | 5.0 | 0.00 | 0.00 | 0.00 | 1020.3 | |
| 20260903152945 | 0 | 124 | 2.0 | 5.0 | 0.00 | 0.00 | 0.00 | 1020.3 | |
| 20260903152738 | 0 | 124 | 2.0 | 5.0 | 0.00 | 0.00 | 0.00 | 1020.3 | |
| 20260903152638 | 0 | 99 | 1.0 | 5.0 | 0.00 | 0.00 | 0.00 | 1020.3 | |
| 20260903152536 | 0 | 99 | 1.0 | 5.0 | 0.00 | 0.00 | 0.00 | 1020.3 | |
| 20260903152436 | 0 | 121 | 2.0 | 5.0 | 0.00 | 0.00 | 0.00 | 1020.3 | |
| 20260903152401 | 0 | 106 | 2.0 | 5.0 | 0.00 | 0.00 | 0.00 | 1020.3 | |
| 20260903152334 | 0 | 101 | 2.0 | 5.0 | 0.00 | 0.00 | 0.00 | 1020.2 | |
| 20260903152234 | 0 | 167 | 2.0 | 5.0 | 0.00 | 0.00 | 0.00 | 1020.3 | |
| 20260903152132 | 0 | 111 | 2.0 | 5.0 | 0.00 | 0.00 | 0.00 | 1020.3 | |
| 20260903152031 | 0 | 110 | 2.0 | 5.0 | 0.00 | 0.00 | 0.00 | 1020.3 | |
| 20260903151901 | 0 | 153 | 2.0 | 4.0 | 0.00 | 0.00 | 0.00 | 1020.3 | |
| 20260903151828 | 0 | 117 | 2.0 | 4.0 | 0.00 | 0.00 | 0.00 | 1020.3 | |
| 20260903151733 | 0 | 141 | 2.0 | 4.0 | 0.00 | 0.00 | 0.00 | 1020.3 | |
| 20260903151525 | 0 | 111 | 2.0 | 4.0 | 0.00 | 0.00 | 0.00 | 1020.2 | |
| 20260903151425 | 0 | 129 | 2.0 | 4.0 | 0.00 | 0.00 | 0.00 | 1020.3 | |
| 20260903151402 | 0 | 123 | 2.0 | 4.0 | 0.00 | 0.00 | 0.00 | 1020.3 | |
| 20260903151325 | 0 | 111 | 1.0 | 4.0 | 0.00 | 0.00 | 0.00 | 1020.3 | |
| 20260903151224 | 0 | 118 | 1.0 | 4.0 | 0.00 | 0.00 | 0.00 | 1020.3 | |
| 20260903151124 | 0 | 132 | 1.0 | 4.0 | 0.00 | 0.00 | 0.00 | 1020.3 | |
| 20260903151025 | 0 | 127 | 1.0 | 4.0 | 0.00 | 0.00 | 0.00 | 1020.3 | |
| 20260903150924 | 0 | 126 | 1.0 | 4.0 | 0.00 | 0.00 | 0.00 | 1020.3 | |
| 20260903150859 | 0 | 132 | 1.0 | 4.0 | 0.00 | 0.00 | 0.00 | 1020.3 | |
| 20260903150824 | 0 | 129 | 1.0 | 4.0 | 0.00 | 0.00 | 0.00 | 1020.3 | |
| 20260903150724 | 0 | 122 | 1.0 | 4.0 | 0.00 | 0.00 | 0.00 | 1020.3 | |
| 20260903150623 | 0 | 144 | 1.0 | 4.0 | 0.00 | 0.00 | 0.00 | 1020.3 | |
| 20260903150527 | 0 | 154 | 1.0 | 4.0 | 0.00 | 0.00 | 0.00 | 1020.3 | |
| 20260903150357 | 0 | 154 | 1.0 | 4.0 | 0.00 | 0.00 | 0.00 | 1020.3 | |
| 20260903150322 | 0 | 154 | 1.0 | 4.0 | 0.00 | 0.00 | 0.00 | 1020.3 | |
| 20260903150221 | 0 | 141 | 1.0 | 4.0 | 0.00 | 0.00 | 0.00 | 1020.3 | |
| 20260903150121 | 0 | 141 | 1.0 | 4.0 | 0.00 | 0.00 | 0.00 | 1020.3 | |
| 20260903150020 | 0 | 146 | 1.0 | 3.0 | 0.00 | 0.00 | 0.00 | 1020.3 | |
| 20260903145918 | 0 | 146 | 1.0 | 3.0 | 0.00 | 0.00 | 0.00 | 1020.3 | |
| 20260903145855 | 0 | 146 | 1.0 | 3.0 | 0.00 | 0.00 | 0.00 | 1020.3 | |
| 20260903145818 | 0 | 146 | 1.0 | 3.0 | 0.00 | 0.00 | 0.00 | 1020.4 | |
| 20260903145714 | 0 | 146 | 1.0 | 3.0 | 0.00 | 0.00 | 0.00 | 1020.4 | |
| 20260903145612 | 0 | 146 | 1.0 | 3.0 | 0.00 | 0.00 | 0.00 | 1020.4 | |
| 20260903145513 | 0 | 146 | 1.0 | 4.0 | 0.00 | 0.00 | 0.00 | 1020.3 | |
| 20260903145413 | 0 | 146 | 1.0 | 4.0 | 0.00 | 0.00 | 0.00 | 1020.4 | |
| 20260903145353 | 0 | 146 | 1.0 | 4.0 | 0.00 | 0.00 | 0.00 | 1020.4 | |
| 20260903145318 | 0 | 146 | 1.0 | 4.0 | 0.00 | 0.00 | 0.00 | 1020.4 | |
| 20260903145111 | 0 | 133 | 1.0 | 4.0 | 0.00 | 0.00 | 0.00 | 1020.4 | |
| 20260903145028 | 0 | 147 | 1.0 | 4.0 | 0.00 | 0.00 | 0.00 | 1020.4 | |
| 20260903145021 | 0 | 147 | 1.0 | 4.0 | 0.00 | 0.00 | 0.00 | 1020.4 | |
| 20260903144710 | 0 | 163 | 1.0 | 4.0 | 0.00 | 0.00 | 0.00 | 1020.4 | |
| 20260903144611 | 0 | 163 | 1.0 | 4.0 | 0.00 | 0.00 | 0.00 | 1020.4 | |
| 20260903144603 | 0 | 158 | 1.0 | 3.0 | 0.00 | 0.00 | 0.00 | 1020.4 | |
| 20260903144309 | 0 | 158 | 1.0 | 3.0 | 0.00 | 0.00 | 0.00 | 1020.4 | |
| 20260903144206 | 0 | 178 | 1.0 | 3.0 | 0.00 | 0.00 | 0.00 | 1020.4 | |
| 20260903144106 | 0 | 197 | 1.0 | 3.0 | 0.00 | 0.00 | 0.00 | 1020.4 | |
| 20260903144006 | 0 | 187 | 1.0 | 3.0 | 0.00 | 0.00 | 0.00 | 1020.4 | |
| 20260903143904 | 0 | 187 | 1.0 | 3.0 | 0.00 | 0.00 | 0.00 | 1020.4 | |
| 20260903143848 | 0 | 187 | 1.0 | 3.0 | 0.00 | 0.00 | 0.00 | 1020.4 | |
| 20260903143804 | 0 | 187 | 1.0 | 4.0 | 0.00 | 0.00 | 0.00 | 1020.4 | |
| 20260903143704 | 0 | 187 | 1.0 | 4.0 | 0.00 | 0.00 | 0.00 | 1020.4 | |
| 20260903143604 | 0 | 187 | 1.0 | 4.0 | 0.00 | 0.00 | 0.00 | 1020.4 | |
| 20260903143505 | 0 | 187 | 1.0 | 4.0 | 0.00 | 0.00 | 0.00 | 1020.3 | |
| 20260903143347 | 0 | 187 | 1.0 | 4.0 | 0.00 | 0.00 | 0.00 | 1020.4 | |
| 20260903143302 | 0 | 187 | 1.0 | 4.0 | 0.00 | 0.00 | 0.00 | 1020.4 | |
| 20260903143209 | 0 | 187 | 1.0 | 4.0 | 0.00 | 0.00 | 0.00 | 1020.4 | |
| 20260903143002 | 0 | 201 | 1.0 | 4.0 | 0.00 | 0.00 | 0.00 | 1020.4 | |
| 20260903142902 | 0 | 201 | 1.0 | 4.0 | 0.00 | 0.00 | 0.00 | 1020.4 | |
| 20260903142846 | 0 | 200 | 1.0 | 4.0 | 0.00 | 0.00 | 0.00 | 1020.4 | |
| 20260903142802 | 0 | 211 | 1.0 | 4.0 | 0.00 | 0.00 | 0.00 | 1020.4 | |
| 20260903142702 | 0 | 202 | 1.0 | 4.0 | 0.00 | 0.00 | 0.00 | 1020.5 | |
| 20260903142602 | 0 | 199 | 1.0 | 4.0 | 0.00 | 0.00 | 0.00 | 1020.4 | |
| 20260903142502 | 0 | 158 | 1.0 | 4.0 | 0.00 | 0.00 | 0.00 | 1020.5 | |
| 20260903142345 | 0 | 127 | 1.0 | 4.0 | 0.00 | 0.00 | 0.00 | 1020.5 | |
| 20260903142258 | 0 | 127 | 1.0 | 4.0 | 0.00 | 0.00 | 0.00 | 1020.5 | |
| 20260903142156 | 0 | 127 | 2.0 | 5.0 | 0.00 | 0.00 | 0.00 | 1020.4 | |
| 20260903142055 | 0 | 127 | 2.0 | 5.0 | 0.00 | 0.00 | 0.00 | 1020.4 | |
| 20260903141954 | 0 | 127 | 2.0 | 5.0 | 0.00 | 0.00 | 0.00 | 1020.5 | |
| 20260903141842 | 0 | 127 | 2.0 | 5.0 | 0.00 | 0.00 | 0.00 | 1020.5 | |
| 20260903141754 | 0 | 131 | 2.0 | 5.0 | 0.00 | 0.00 | 0.00 | 1020.5 | |
| 20260903141652 | 0 | 134 | 2.0 | 5.0 | 0.00 | 0.00 | 0.00 | 1020.5 | |
| 20260903141559 | 0 | 171 | 2.0 | 5.0 | 0.00 | 0.00 | 0.00 | 1020.6 | |
| 20260903141352 | 0 | 157 | 1.0 | 5.0 | 0.00 | 0.00 | 0.00 | 1020.5 | |
| 20260903141341 | 0 | 169 | 1.0 | 5.0 | 0.00 | 0.00 | 0.00 | 1020.5 | |
| 20260903141300 | 0 | 172 | 1.0 | 5.0 | 0.00 | 0.00 | 0.00 | 1020.5 | |
| 20260903141053 | 0 | 188 | 1.0 | 5.0 | 0.00 | 0.00 | 0.00 | 1020.5 | |
| 20260903140952 | 0 | 199 | 1.0 | 5.0 | 0.00 | 0.00 | 0.00 | 1020.4 | |
| 20260903140853 | 0 | 195 | 1.0 | 4.0 | 0.00 | 0.00 | 0.00 | 1020.4 | |
| 20260903140841 | 0 | 205 | 1.0 | 5.0 | 0.00 | 0.00 | 0.00 | 1020.4 | |
| 20260903140752 | 0 | 205 | 1.0 | 5.0 | 0.00 | 0.00 | 0.00 | 1020.4 | |
| 20260903140650 | 0 | 205 | 1.0 | 5.0 | 0.00 | 0.00 | 0.00 | 1020.4 | |
| 20260903140551 | 0 | 205 | 1.0 | 5.0 | 0.00 | 0.00 | 0.00 | 1020.3 | |
| 20260903140450 | 0 | 205 | 1.0 | 5.0 | 0.00 | 0.00 | 0.00 | 1020.4 | |
| 20260903140340 | 0 | 205 | 1.0 | 5.0 | 0.00 | 0.00 | 0.00 | 1020.4 | |
| 20260903140250 | 0 | 205 | 1.0 | 5.0 | 0.00 | 0.00 | 0.00 | 1020.4 | |
| 20260903140155 | 0 | 205 | 1.0 | 5.0 | 0.00 | 0.00 | 0.00 | 1020.4 | |
| 20260903135947 | 0 | 240 | 1.0 | 5.0 | 0.00 | 0.00 | 0.00 | 1020.4 | |
| 20260903135908 | 0 | 201 | 1.0 | 5.0 | 0.00 | 0.00 | 0.00 | 1020.4 | |
| 20260903135902 | 0 | 208 | 1.0 | 5.0 | 0.00 | 0.00 | 0.00 | 1020.4 | |
| 20260903135447 | 0 | 239 | 1.0 | 3.0 | 0.00 | 0.00 | 0.00 | 1020.3 | |
| 20260903135440 | 0 | 239 | 1.0 | 3.0 | 0.00 | 0.00 | 0.00 | 1020.3 | |
| 20260903135236 | 0 | 238 | 1.0 | 3.0 | 0.00 | 0.00 | 0.00 | 1020.3 | |
| 20260903135136 | 0 | 239 | 1.0 | 3.0 | 0.00 | 0.00 | 0.00 | 1020.3 | |
| 20260903135036 | 0 | 238 | 1.0 | 3.0 | 0.00 | 0.00 | 0.00 | 1020.3 | |
| 20260903134935 | 0 | 238 | 1.0 | 3.0 | 0.00 | 0.00 | 0.00 | 1020.3 | |
| 20260903134848 | 0 | 238 | 1.0 | 3.0 | 0.00 | 0.00 | 0.00 | 1020.4 | |
| 20260903134844 | 0 | 239 | 0.0 | 3.0 | 0.00 | 0.00 | 0.00 | 1020.4 | |
| 20260903134636 | 0 | 223 | 1.0 | 3.0 | 0.00 | 0.00 | 0.00 | 1020.4 | |
| 20260903134536 | 0 | 223 | 1.0 | 3.0 | 0.00 | 0.00 | 0.00 | 1020.3 | |
| 20260903134436 | 0 | 223 | 1.0 | 3.0 | 0.00 | 0.00 | 0.00 | 1020.3 | |
| 20260903134336 | 0 | 223 | 1.0 | 3.0 | 0.00 | 0.00 | 0.00 | 1020.3 | |
| 20260903134236 | 0 | 223 | 1.0 | 3.0 | 0.00 | 0.00 | 0.00 | 1020.3 | |
| 20260903134136 | 0 | 223 | 1.0 | 4.0 | 0.00 | 0.00 | 0.00 | 1020.3 | |
| 20260903134036 | 0 | 223 | 2.0 | 5.0 | 0.00 | 0.00 | 0.00 | 1020.3 | |
| 20260903133936 | 0 | 223 | 2.0 | 5.0 | 0.00 | 0.00 | 0.00 | 1020.3 | |
| 20260903133832 | 0 | 223 | 2.0 | 5.0 | 0.00 | 0.00 | 0.00 | 1020.3 | |
| 20260903133732 | 0 | 227 | 2.0 | 5.0 | 0.00 | 0.00 | 0.00 | 1020.3 | |
| 20260903133630 | 0 | 246 | 2.0 | 5.0 | 0.00 | 0.00 | 0.00 | 1020.4 | |
| 20260903133531 | 0 | 218 | 1.0 | 5.0 | 0.00 | 0.00 | 0.00 | 1020.3 | |
| 20260903133430 | 0 | 211 | 1.0 | 5.0 | 0.00 | 0.00 | 0.00 | 1020.3 | |
| 20260903133327 | 0 | 192 | 1.0 | 5.0 | 0.00 | 0.00 | 0.00 | 1020.2 | |
| 20260903133226 | 0 | 192 | 1.0 | 5.0 | 0.00 | 0.00 | 0.00 | 1020.2 | |
| 20260903133123 | 0 | 217 | 1.0 | 5.0 | 0.00 | 0.00 | 0.00 | 1020.2 | |
| 20260903133021 | 0 | 193 | 2.0 | 7.0 | 0.00 | 0.00 | 0.00 | 1020.0 | |
| 20260903132922 | 0 | 176 | 2.0 | 7.0 | 0.00 | 0.00 | 0.00 | 1020.0 | |
| 20260903132818 | 0 | 176 | 2.0 | 7.0 | 0.00 | 0.00 | 0.00 | 1020.0 | |
| 20260903132718 | 0 | 176 | 2.0 | 7.0 | 0.00 | 0.00 | 0.00 | 1020.0 | |
| 20260903132619 | 0 | 138 | 2.0 | 7.0 | 0.00 | 0.00 | 0.00 | 1020.0 | |
| 20260903132518 | 0 | 138 | 2.0 | 7.0 | 0.00 | 0.00 | 0.00 | 1020.0 | |
| 20260903132418 | 0 | 138 | 3.0 | 7.0 | 0.00 | 0.00 | 0.00 | 1019.9 | |
| 20260903132325 | 0 | 138 | 3.0 | 7.0 | 0.00 | 0.00 | 0.00 | 1020.0 | |
| 20260903132117 | 0 | 148 | 2.0 | 7.0 | 0.00 | 0.00 | 0.00 | 1020.0 | |
| 20260903132018 | 0 | 142 | 2.0 | 7.0 | 0.00 | 0.00 | 0.00 | 1020.0 | |
| 20260903131929 | 0 | 158 | 1.0 | 7.0 | 0.00 | 0.00 | 0.00 | 1020.0 | |
| 20260903131922 | 0 | 138 | 1.0 | 7.0 | 0.00 | 0.00 | 0.00 | 1019.9 | |
| 20260903131717 | 0 | 157 | 1.0 | 4.0 | 0.00 | 0.00 | 0.00 | 1019.9 | |
| 20260903131618 | 0 | 116 | 2.0 | 4.0 | 0.00 | 0.00 | 0.00 | 1019.9 | |
| 20260903131518 | 0 | 116 | 2.0 | 5.0 | 0.00 | 0.00 | 0.00 | 1019.9 | |
| 20260903131442 | 0 | 61 | 2.0 | 5.0 | 0.00 | 0.00 | 0.00 | 1019.8 | |
| 20260903131318 | 0 | 61 | 2.0 | 5.0 | 0.00 | 0.00 | 0.00 | 1019.8 | |
| 20260903131225 | 0 | 193 | 2.0 | 5.0 | 0.00 | 0.00 | 0.00 | 1019.8 | |
| 20260903131015 | 0 | 193 | 3.0 | 5.0 | 0.00 | 0.00 | 0.00 | 1019.9 | |
| 20260903130915 | 0 | 191 | 3.0 | 5.0 | 0.00 | 0.00 | 0.00 | 1019.8 | |
| 20260903130814 | 0 | 214 | 3.0 | 5.0 | 0.00 | 0.00 | 0.00 | 1019.9 | |
| 20260903130714 | 0 | 230 | 3.0 | 5.0 | 0.00 | 0.00 | 0.00 | 1019.9 | |
| 20260903130616 | 0 | 244 | 3.0 | 5.0 | 0.00 | 0.00 | 0.00 | 1019.8 | |
| 20260903130519 | 0 | 238 | 3.0 | 5.0 | 0.00 | 0.00 | 0.00 | 1019.8 | |
| 20260903130335 | 0 | 227 | 3.0 | 5.0 | 0.00 | 0.00 | 0.00 | 1019.7 | |
| 20260903130311 | 0 | 241 | 3.0 | 5.0 | 0.00 | 0.00 | 0.00 | 1019.7 | |
| 20260903130212 | 0 | 247 | 3.0 | 5.0 | 0.00 | 0.00 | 0.00 | 1019.7 | |
| 20260903130112 | 0 | 254 | 3.0 | 5.0 | 0.00 | 0.00 | 0.00 | 1019.7 | |
| 20260903130012 | 0 | 254 | 2.0 | 5.0 | 0.00 | 0.00 | 0.00 | 1019.7 | |
| 20260903125912 | 0 | 267 | 2.0 | 5.0 | 0.00 | 0.00 | 0.00 | 1019.8 | |
| 20260903125829 | 0 | 247 | 2.0 | 5.0 | 0.00 | 0.00 | 0.00 | 1019.8 | |
| 20260903125812 | 0 | 244 | 2.0 | 5.0 | 0.00 | 0.00 | 0.00 | 1019.8 | |
| 20260903125712 | 0 | 226 | 2.0 | 5.0 | 0.00 | 0.00 | 0.00 | 1019.8 | |
| 20260903125612 | 0 | 225 | 3.0 | 5.0 | 0.00 | 0.00 | 0.00 | 1019.8 | |
| 20260903125513 | 0 | 200 | 2.0 | 5.0 | 0.00 | 0.00 | 0.00 | 1019.8 | |
| 20260903125412 | 0 | 203 | 2.0 | 5.0 | 0.00 | 0.00 | 0.00 | 1019.7 | |
| 20260903125329 | 0 | 220 | 2.0 | 5.0 | 0.00 | 0.00 | 0.00 | 1019.8 | |
| 20260903125312 | 0 | 227 | 2.0 | 5.0 | 0.00 | 0.00 | 0.00 | 1019.8 | |
| 20260903125212 | 0 | 238 | 2.0 | 5.0 | 0.00 | 0.00 | 0.00 | 1019.7 | |
| 20260903125111 | 0 | 238 | 2.0 | 5.0 | 0.00 | 0.00 | 0.00 | 1019.7 | |
| 20260903125012 | 0 | 238 | 2.0 | 5.0 | 0.00 | 0.00 | 0.00 | 1019.7 | |
| 20260903124912 | 0 | 227 | 2.0 | 5.0 | 0.00 | 0.00 | 0.00 | 1019.7 | |
| 20260903124829 | 0 | 229 | 2.0 | 5.0 | 0.00 | 0.00 | 0.00 | 1019.7 | |
| 20260903124810 | 0 | 261 | 2.0 | 5.0 | 0.00 | 0.00 | 0.00 | 1019.7 | |
| 20260903124716 | 0 | 163 | 2.0 | 4.0 | 0.00 | 0.00 | 0.00 | 1019.7 | |
| 20260903124508 | 0 | 222 | 2.0 | 4.0 | 0.00 | 0.00 | 0.00 | 1019.7 | |
| 20260903124408 | 0 | 342 | 2.0 | 4.0 | 0.00 | 0.00 | 0.00 | 1019.7 | |
| 20260903124329 | 0 | 347 | 2.0 | 4.0 | 0.00 | 0.00 | 0.00 | 1019.7 | |
| 20260903124315 | 0 | 355 | 2.0 | 4.0 | 0.00 | 0.00 | 0.00 | 1019.7 | |
| 20260903124105 | 0 | 198 | 2.0 | 4.0 | 0.00 | 0.00 | 0.00 | 1019.6 | |
| 20260903124002 | 0 | 198 | 2.0 | 4.0 | 0.00 | 0.00 | 0.00 | 1019.6 | |
| 20260903123902 | 0 | 198 | 3.0 | 5.0 | 0.00 | 0.00 | 0.00 | 1019.7 | |
| 20260903123828 | 0 | 198 | 3.0 | 5.0 | 0.00 | 0.00 | 0.00 | 1019.6 | |
| 20260903123801 | 0 | 198 | 3.0 | 5.0 | 0.00 | 0.00 | 0.00 | 1019.6 | |
| 20260903123702 | 0 | 202 | 3.0 | 5.0 | 0.00 | 0.00 | 0.00 | 1019.7 | |
| 20260903123602 | 0 | 203 | 3.0 | 5.0 | 0.00 | 0.00 | 0.00 | 1019.7 | |
| 20260903123458 | 0 | 202 | 3.0 | 5.0 | 0.00 | 0.00 | 0.00 | 1019.6 | |
| 20260903123358 | 0 | 198 | 3.0 | 5.0 | 0.00 | 0.00 | 0.00 | 1019.6 | |
| 20260903123328 | 0 | 198 | 3.0 | 5.0 | 0.00 | 0.00 | 0.00 | 1019.6 | |
| 20260903123303 | 0 | 198 | 3.0 | 5.0 | 0.00 | 0.00 | 0.00 | 1019.6 | |
| 20260903123052 | 0 | 198 | 3.0 | 5.0 | 0.00 | 0.00 | 0.00 | 1019.4 | |
| 20260903122846 | 0 | 173 | 2.0 | 5.0 | 0.00 | 0.00 | 0.00 | 1019.4 | |
| 20260903122828 | 0 | 174 | 2.0 | 5.0 | 0.00 | 0.00 | 0.00 | 1019.6 | |
| 20260903122746 | 0 | 187 | 2.0 | 5.0 | 0.00 | 0.00 | 0.00 | 1019.6 | |
| 20260903122646 | 0 | 208 | 2.0 | 5.0 | 0.00 | 0.00 | 0.00 | 1019.6 | |
| 20260903122543 | 0 | 217 | 1.0 | 5.0 | 0.00 | 0.00 | 0.00 | 1019.7 | |
| 20260903122500 | 0 | 224 | 1.0 | 5.0 | 0.00 | 0.00 | 0.00 | 1019.6 | |
| 20260903122346 | 0 | 198 | 1.0 | 5.0 | 0.00 | 0.00 | 0.00 | 1019.4 | |
| 20260903122146 | 0 | 173 | 1.0 | 3.0 | 0.00 | 0.00 | 0.00 | 1019.3 | |
| 20260903121938 | 0 | 173 | 1.0 | 4.0 | 0.00 | 0.00 | 0.00 | 1019.4 | |
| 20260903121825 | 0 | 173 | 1.0 | 4.0 | 0.00 | 0.00 | 0.00 | 1019.4 | |
| 20260903121738 | 0 | 173 | 1.0 | 4.0 | 0.00 | 0.00 | 0.00 | 1019.4 | |
| 20260903121636 | 0 | 173 | 2.0 | 4.0 | 0.00 | 0.00 | 0.00 | 1019.4 | |
| 20260903121533 | 0 | 173 | 2.0 | 4.0 | 0.00 | 0.00 | 0.00 | 1019.3 | |
| 20260903121436 | 0 | 173 | 2.0 | 5.0 | 0.00 | 0.00 | 0.00 | 1019.3 | |
| 20260903121429 | 0 | 173 | 2.0 | 5.0 | 0.00 | 0.00 | 0.00 | 1019.4 | |
| 20260903121225 | 0 | 177 | 2.0 | 5.0 | 0.00 | 0.00 | 0.00 | 1019.4 | |
| 20260903121124 | 0 | 172 | 2.0 | 5.0 | 0.00 | 0.00 | 0.00 | 1019.3 | |
| 20260903121024 | 0 | 186 | 2.0 | 5.0 | 0.00 | 0.00 | 0.00 | 1019.3 | |
| 20260903120921 | 0 | 186 | 2.0 | 5.0 | 0.00 | 0.00 | 0.00 | 1019.4 | |
| 20260903120821 | 0 | 186 | 2.0 | 5.0 | 0.00 | 0.00 | 0.00 | 1019.3 | |
| 20260903120719 | 0 | 186 | 2.0 | 5.0 | 0.00 | 0.00 | 0.00 | 1019.3 | |
| 20260903120617 | 0 | 200 | 2.0 | 5.0 | 0.00 | 0.00 | 0.00 | 1019.3 | |
| 20260903120515 | 0 | 211 | 2.0 | 5.0 | 0.00 | 0.00 | 0.00 | 1019.3 | |
| 20260903120430 | 0 | 213 | 2.0 | 5.0 | 0.00 | 0.00 | 0.00 | 1019.3 | |
| 20260903120308 | 0 | 257 | 2.0 | 5.0 | 0.00 | 0.00 | 0.00 | 1019.2 | |
| 20260903120217 | 0 | 257 | 2.0 | 5.0 | 0.00 | 0.00 | 0.00 | 1019.2 | |
| 20260903120009 | 0 | 261 | 2.0 | 5.0 | 0.00 | 0.00 | 0.00 | 1019.3 | |
| 20260903115908 | 0 | 236 | 2.0 | 5.0 | 0.00 | 0.00 | 0.00 | 1019.2 | |
| 20260903115824 | 0 | 213 | 2.0 | 5.0 | 0.00 | 0.00 | 0.00 | 1019.2 | |
| 20260903115809 | 0 | 232 | 2.0 | 5.0 | 0.00 | 0.00 | 0.00 | 1019.2 | |
| 20260903115714 | 0 | 232 | 2.0 | 5.0 | 0.00 | 0.00 | 0.00 | 1019.2 | |
| 20260903115505 | 0 | 209 | 2.0 | 5.0 | 0.00 | 0.00 | 0.00 | 1019.2 | |
| 20260903115402 | 0 | 226 | 2.0 | 5.0 | 0.00 | 0.00 | 0.00 | 1019.2 | |
| 20260903115324 | 0 | 220 | 2.0 | 4.0 | 0.00 | 0.00 | 0.00 | 1019.2 | |
| 20260903115301 | 0 | 243 | 2.0 | 5.0 | 0.00 | 0.00 | 0.00 | 1019.2 | |
| 20260903115200 | 0 | 248 | 3.0 | 5.0 | 0.00 | 0.00 | 0.00 | 1019.2 | |
| 20260903115101 | 0 | 248 | 3.0 | 6.0 | 0.00 | 0.00 | 0.00 | 1019.2 | |
| 20260903115002 | 0 | 220 | 3.0 | 6.0 | 0.00 | 0.00 | 0.00 | 1019.1 | |
| 20260903114821 | 0 | 234 | 3.0 | 6.0 | 0.00 | 0.00 | 0.00 | 1019.2 | |
| 20260903114754 | 0 | 250 | 3.0 | 6.0 | 0.00 | 0.00 | 0.00 | 1019.2 | |
| 20260903114652 | 0 | 234 | 3.0 | 6.0 | 0.00 | 0.00 | 0.00 | 1019.1 | |
| 20260903114554 | 0 | 234 | 3.0 | 6.0 | 0.00 | 0.00 | 0.00 | 1019.1 | |
| 20260903114450 | 0 | 234 | 3.0 | 6.0 | 0.00 | 0.00 | 0.00 | 1019.1 | |
| 20260903114345 | 0 | 232 | 3.0 | 6.0 | 0.00 | 0.00 | 0.00 | 1019.1 | |
| 20260903114322 | 0 | 240 | 3.0 | 6.0 | 0.00 | 0.00 | 0.00 | 1019.1 | |
| 20260903114245 | 0 | 238 | 3.0 | 6.0 | 0.00 | 0.00 | 0.00 | 1019.1 | |
| 20260903114144 | 0 | 260 | 2.0 | 6.0 | 0.00 | 0.00 | 0.00 | 1019.1 | |
| 20260903114045 | 0 | 234 | 2.0 | 4.0 | 0.00 | 0.00 | 0.00 | 1019.0 | |
| 20260903113944 | 0 | 252 | 2.0 | 4.0 | 0.00 | 0.00 | 0.00 | 1019.1 | |
| 20260903113839 | 0 | 229 | 2.0 | 4.0 | 0.00 | 0.00 | 0.00 | 1019.1 | |
| 20260903113820 | 0 | 229 | 2.0 | 4.0 | 0.00 | 0.00 | 0.00 | 1019.0 | |
| 20260903113739 | 0 | 229 | 2.0 | 4.0 | 0.00 | 0.00 | 0.00 | 1019.1 | |
| 20260903113639 | 0 | 229 | 2.0 | 4.0 | 0.00 | 0.00 | 0.00 | 1019.0 | |
| 20260903113538 | 0 | 242 | 2.0 | 4.0 | 0.00 | 0.00 | 0.00 | 1019.0 | |
| 20260903113438 | 0 | 246 | 2.0 | 4.0 | 0.00 | 0.00 | 0.00 | 1019.0 | |
| 20260903113338 | 0 | 223 | 2.0 | 4.0 | 0.00 | 0.00 | 0.00 | 1019.1 | |
| 20260903113320 | 0 | 229 | 2.0 | 3.0 | 0.00 | 0.00 | 0.00 | 1019.1 | |
| 20260903113244 | 0 | 239 | 2.0 | 5.0 | 0.00 | 0.00 | 0.00 | 1019.1 | |
| 20260903113036 | 0 | 207 | 2.0 | 5.0 | 0.00 | 0.00 | 0.00 | 1019.1 | |
| 20260903112937 | 0 | 206 | 2.0 | 5.0 | 0.00 | 0.00 | 0.00 | 1019.1 | |
| 20260903112845 | 0 | 201 | 2.0 | 5.0 | 0.00 | 0.00 | 0.00 | 1019.1 | |
| 20260903112839 | 0 | 202 | 2.0 | 5.0 | 0.00 | 0.00 | 0.00 | 1019.1 | |
| 20260903112633 | 0 | 201 | 2.0 | 5.0 | 0.00 | 0.00 | 0.00 | 1019.1 | |
| 20260903112533 | 0 | 201 | 2.0 | 5.0 | 0.00 | 0.00 | 0.00 | 1019.1 | |
| 20260903112444 | 0 | 201 | 2.0 | 5.0 | 0.00 | 0.00 | 0.00 | 1019.1 | |
| 20260903112438 | 0 | 194 | 2.0 | 5.0 | 0.00 | 0.00 | 0.00 | 1019.1 | |
| 20260903112127 | 0 | 179 | 1.0 | 5.0 | 0.00 | 0.00 | 0.00 | 1019.1 | |
| 20260903112026 | 0 | 144 | 1.0 | 5.0 | 0.00 | 0.00 | 0.00 | 1019.1 | |
| 20260903111927 | 0 | 144 | 1.0 | 5.0 | 0.00 | 0.00 | 0.00 | 1019.1 | |
| 20260903111815 | 0 | 143 | 1.0 | 5.0 | 0.00 | 0.00 | 0.00 | 1019.1 | |
| 20260903111726 | 0 | 239 | 1.0 | 4.0 | 0.00 | 0.00 | 0.00 | 1019.1 | |
| 20260903111633 | 0 | 239 | 1.0 | 4.0 | 0.00 | 0.00 | 0.00 | 1019.1 | |
| 20260903111425 | 0 | 239 | 1.0 | 4.0 | 0.00 | 0.00 | 0.00 | 1019.1 | |
| 20260903111326 | 0 | 239 | 1.0 | 4.0 | 0.00 | 0.00 | 0.00 | 1019.0 | |
| 20260903111119 | 0 | 239 | 2.0 | 4.0 | 0.00 | 0.00 | 0.00 | 1019.1 | |
| 20260903111019 | 0 | 239 | 1.0 | 4.0 | 0.00 | 0.00 | 0.00 | 1019.1 | |
| 20260903110916 | 0 | 239 | 1.0 | 4.0 | 0.00 | 0.00 | 0.00 | 1019.1 | |
| 20260903110816 | 0 | 239 | 1.0 | 4.0 | 0.00 | 0.00 | 0.00 | 1019.1 | |
| 20260903110718 | 0 | 239 | 2.0 | 4.0 | 0.00 | 0.00 | 0.00 | 1019.1 | |
| 20260903110512 | 0 | 239 | 2.0 | 4.0 | 0.00 | 0.00 | 0.00 | 1019.1 | |
| 20260903110420 | 0 | 239 | 2.0 | 4.0 | 0.00 | 0.00 | 0.00 | 1019.2 | |
| 20260903110304 | 0 | 214 | 2.0 | 4.0 | 0.00 | 0.00 | 0.00 | 1019.1 | |
| 20260903110203 | 0 | 235 | 2.0 | 4.0 | 0.00 | 0.00 | 0.00 | 1019.1 | |
| 20260903110107 | 0 | 206 | 2.0 | 4.0 | 0.00 | 0.00 | 0.00 | 1019.1 | |
| 20260903105900 | 0 | 206 | 2.0 | 4.0 | 0.00 | 0.00 | 0.00 | 1019.0 | |
| 20260903105815 | 0 | 206 | 2.0 | 4.0 | 0.00 | 0.00 | 0.00 | 1019.1 | |
| 20260903105801 | 0 | 206 | 2.0 | 4.0 | 0.00 | 0.00 | 0.00 | 1019.1 | |
| 20260903105659 | 0 | 206 | 1.0 | 4.0 | 0.00 | 0.00 | 0.00 | 1019.0 | |
| 20260903105604 | 0 | 206 | 1.0 | 4.0 | 0.00 | 0.00 | 0.00 | 1019.1 | |
| 20260903105404 | 0 | 206 | 1.0 | 4.0 | 0.00 | 0.00 | 0.00 | 1019.1 | |
| 20260903105359 | 0 | 204 | 1.0 | 3.0 | 0.00 | 0.00 | 0.00 | 1019.1 | |
| 20260903105153 | 0 | 204 | 1.0 | 4.0 | 0.00 | 0.00 | 0.00 | 1019.1 | |
| 20260903105052 | 60 | 211 | 1.0 | 4.0 | 0.00 | 0.00 | 0.00 | 57 | 1019.1 |
| 20260903104950 | 60 | 188 | 1.0 | 4.0 | 0.00 | 0.00 | 0.00 | 57 | 1019.1 |
| 20260903104848 | 60 | 188 | 2.0 | 5.0 | 0.00 | 0.00 | 0.00 | 57 | 1019.0 |
| 20260903104811 | 60 | 188 | 2.0 | 5.0 | 0.00 | 0.00 | 0.00 | 57 | 1019.0 |
| 20260903104749 | 60 | 188 | 2.0 | 5.0 | 0.00 | 0.00 | 0.00 | 57 | 1019.0 |
| 20260903104647 | 60 | 188 | 2.0 | 5.0 | 0.00 | 0.00 | 0.00 | 57 | 1019.0 |
| 20260903104546 | 60 | 188 | 2.0 | 5.0 | 0.00 | 0.00 | 0.00 | 57 | 1019.0 |
| 20260903104450 | 60 | 188 | 2.0 | 5.0 | 0.00 | 0.00 | 0.00 | 57 | 1019.1 |
| 20260903104309 | 60 | 188 | 2.0 | 5.0 | 0.00 | 0.00 | 0.00 | 57 | 1019.1 |
| 20260903104237 | 60 | 188 | 2.0 | 5.0 | 0.00 | 0.00 | 0.00 | 57 | 1019.0 |
| 20260903104137 | 60 | 189 | 2.0 | 5.0 | 0.00 | 0.00 | 0.00 | 57 | 1019.1 |
| 20260903104036 | 60 | 184 | 1.0 | 5.0 | 0.00 | 0.00 | 0.00 | 57 | 1019.1 |
| 20260903103937 | 60 | 200 | 1.0 | 5.0 | 0.00 | 0.00 | 0.00 | 57 | 1019.1 |
| 20260903103808 | 60 | 210 | 1.0 | 4.0 | 0.00 | 0.00 | 0.00 | 57 | 1019.1 |
| 20260903103729 | 60 | 229 | 1.0 | 3.0 | 0.00 | 0.00 | 0.00 | 57 | 1019.1 |
| 20260903103630 | 60 | 114 | 1.0 | 3.0 | 0.00 | 0.00 | 0.00 | 57 | 1019.0 |
| 20260903103536 | 60 | 114 | 1.0 | 4.0 | 0.00 | 0.00 | 0.00 | 57 | 1019.0 |
| 20260903103307 | 60 | 115 | 2.0 | 6.0 | 0.00 | 0.00 | 0.00 | 57 | 1019.0 |
| 20260903103228 | 60 | 115 | 2.0 | 6.0 | 0.00 | 0.00 | 0.00 | 57 | 1019.0 |
| 20260903103125 | 60 | 115 | 1.0 | 6.0 | 0.00 | 0.00 | 0.00 | 57 | 1019.0 |
| 20260903103029 | 60 | 115 | 2.0 | 6.0 | 0.00 | 0.00 | 0.00 | 57 | 1019.1 |
| 20260903102801 | 60 | 115 | 2.0 | 6.0 | 0.00 | 0.00 | 0.00 | 57 | 1019.2 |
| 20260903102723 | 60 | 226 | 2.0 | 6.0 | 0.00 | 0.00 | 0.00 | 57 | 1019.3 |
| 20260903102627 | 61 | 226 | 3.0 | 6.0 | 0.00 | 0.00 | 0.00 | 57 | 1019.3 |
| 20260903102419 | 61 | 180 | 2.0 | 6.0 | 0.00 | 0.00 | 0.00 | 55 | 1019.3 |
| 20260903102319 | 61 | 180 | 2.0 | 5.0 | 0.00 | 0.00 | 0.00 | 55 | 1019.2 |
| 20260903102255 | 61 | 94 | 2.0 | 5.0 | 0.00 | 0.00 | 0.00 | 55 | 1019.2 |
| 20260903102217 | 61 | 82 | 2.0 | 5.0 | 0.00 | 0.00 | 0.00 | 55 | 1019.1 |
| 20260903102116 | 61 | 82 | 2.0 | 5.0 | 0.00 | 0.00 | 0.00 | 55 | 1019.1 |
| 20260903101909 | 61 | 63 | 2.0 | 5.0 | 0.00 | 0.00 | 0.00 | 54 | 1019.1 |
| 20260903101808 | 61 | 39 | 1.0 | 5.0 | 0.00 | 0.00 | 0.00 | 55 | 1019.1 |
| 20260903101749 | 61 | 42 | 1.0 | 3.0 | 0.00 | 0.00 | 0.00 | 55 | 1019.1 |
| 20260903101715 | 62 | 310 | 1.0 | 3.0 | 0.00 | 0.00 | 0.00 | 54 | 1019.1 |
| 20260903101508 | 62 | 107 | 2.0 | 3.0 | 0.00 | 0.00 | 0.00 | 54 | 1019.1 |
| 20260903101406 | 62 | 107 | 2.0 | 3.0 | 0.00 | 0.00 | 0.00 | 54 | 1019.1 |
| 20260903101307 | 62 | 107 | 2.0 | 3.0 | 0.00 | 0.00 | 0.00 | 54 | 1019.1 |
| 20260903101243 | 62 | 107 | 2.0 | 3.0 | 0.00 | 0.00 | 0.00 | 54 | 1019.1 |
| 20260903101208 | 62 | 107 | 2.0 | 3.0 | 0.00 | 0.00 | 0.00 | 54 | 1019.1 |
| 20260903100958 | 62 | 107 | 2.0 | 7.0 | 0.00 | 0.00 | 0.00 | 54 | 1019.1 |
| 20260903100856 | 62 | 107 | 2.0 | 8.0 | 0.00 | 0.00 | 0.00 | 54 | 1019.1 |
| 20260903100736 | 62 | 107 | 3.0 | 8.0 | 0.00 | 0.00 | 0.00 | 54 | 1019.1 |
| 20260903100657 | 62 | 107 | 3.0 | 8.0 | 0.00 | 0.00 | 0.00 | 53 | 1019.1 |
| 20260903100556 | 62 | 107 | 3.0 | 8.0 | 0.00 | 0.00 | 0.00 | 53 | 1019.1 |
| 20260903100456 | 62 | 107 | 3.0 | 8.0 | 0.00 | 0.00 | 0.00 | 53 | 1019.1 |
| 20260903100354 | 62 | 304 | 3.0 | 8.0 | 0.00 | 0.00 | 0.00 | 53 | 1019.1 |
| 20260903100304 | 62 | 304 | 3.0 | 8.0 | 0.00 | 0.00 | 0.00 | 53 | 1019.1 |
| 20260903100258 | 62 | 304 | 4.0 | 8.0 | 0.00 | 0.00 | 0.00 | 53 | 1019.2 |
| 20260903100050 | 61 | 279 | 3.0 | 8.0 | 0.00 | 0.00 | 0.00 | 53 | 1019.1 |
| 20260903095949 | 61 | 306 | 3.0 | 8.0 | 0.00 | 0.00 | 0.00 | 55 | 1019.2 |
| 20260903095849 | 61 | 285 | 3.0 | 8.0 | 0.00 | 0.00 | 0.00 | 55 | 1019.2 |
| 20260903095748 | 61 | 302 | 3.0 | 8.0 | 0.00 | 0.00 | 0.00 | 55 | 1019.2 |
| 20260903095724 | 61 | 311 | 3.0 | 7.0 | 0.00 | 0.00 | 0.00 | 55 | 1019.2 |
| 20260903095646 | 61 | 302 | 3.0 | 7.0 | 0.00 | 0.00 | 0.00 | 56 | 1019.2 |
| 20260903095545 | 61 | 300 | 3.0 | 7.0 | 0.00 | 0.00 | 0.00 | 56 | 1019.1 |
| 20260903095445 | 61 | 315 | 4.0 | 9.0 | 0.00 | 0.00 | 0.00 | 56 | 1019.1 |
| 20260903095239 | 61 | 333 | 4.0 | 9.0 | 0.00 | 0.00 | 0.00 | 57 | 1019.1 |
| 20260903095218 | 61 | 319 | 4.0 | 9.0 | 0.00 | 0.00 | 0.00 | 57 | 1019.1 |
| 20260903095139 | 61 | 315 | 4.0 | 9.0 | 0.00 | 0.00 | 0.00 | 57 | 1019.1 |
| 20260903095040 | 60 | 304 | 4.0 | 9.0 | 0.00 | 0.00 | 0.00 | 57 | 1019.1 |
| 20260903094834 | 60 | 301 | 4.0 | 9.0 | 0.00 | 0.00 | 0.00 | 58 | 1019.2 |
| 20260903094818 | 60 | 289 | 4.0 | 9.0 | 0.00 | 0.00 | 0.00 | 60 | 1019.1 |
| 20260903094633 | 60 | 312 | 4.0 | 9.0 | 0.00 | 0.00 | 0.00 | 60 | 1019.1 |
| 20260903094532 | 59 | 291 | 4.0 | 9.0 | 0.00 | 0.00 | 0.00 | 61 | 1019.1 |
| 20260903094428 | 59 | 298 | 3.0 | 7.0 | 0.00 | 0.00 | 0.00 | 61 | 1019.2 |
| 20260903094334 | 59 | 296 | 3.0 | 7.0 | 0.00 | 0.00 | 0.00 | 61 | 1019.1 |
| 20260903094206 | 59 | 288 | 3.0 | 7.0 | 0.00 | 0.00 | 0.00 | 61 | 1019.2 |
| 20260903094126 | 59 | 295 | 3.0 | 6.0 | 0.00 | 0.00 | 0.00 | 61 | 1019.1 |
| 20260903094026 | 59 | 288 | 3.0 | 5.0 | 0.00 | 0.00 | 0.00 | 61 | 1019.1 |
| 20260903093928 | 59 | 327 | 3.0 | 5.0 | 0.00 | 0.00 | 0.00 | 62 | 1019.1 |
| 20260903093722 | 59 | 311 | 3.0 | 5.0 | 0.00 | 0.00 | 0.00 | 61 | 1019.2 |
| 20260903093701 | 59 | 284 | 3.0 | 5.0 | 0.00 | 0.00 | 0.00 | 61 | 1019.2 |
| 20260903093621 | 59 | 304 | 2.0 | 5.0 | 0.00 | 0.00 | 0.00 | 62 | 1019.2 |
| 20260903093520 | 59 | 334 | 2.0 | 4.0 | 0.00 | 0.00 | 0.00 | 61 | 1019.2 |
| 20260903093418 | 59 | 322 | 2.0 | 4.0 | 0.00 | 0.00 | 0.00 | 61 | 1019.2 |
| 20260903093318 | 59 | 308 | 1.0 | 4.0 | 0.00 | 0.00 | 0.00 | 61 | 1019.2 |
| 20260903093219 | 59 | 308 | 1.0 | 3.0 | 0.00 | 0.00 | 0.00 | 61 | 1019.2 |
| 20260903093155 | 59 | 308 | 1.0 | 3.0 | 0.00 | 0.00 | 0.00 | 61 | 1019.2 |
| 20260903093117 | 59 | 325 | 1.0 | 3.0 | 0.00 | 0.00 | 0.00 | 62 | 1019.3 |
| 20260903093014 | 59 | 271 | 1.0 | 3.0 | 0.00 | 0.00 | 0.00 | 62 | 1019.2 |
| 20260903093008 | 59 | 271 | 1.0 | 3.0 | 0.00 | 0.00 | 0.00 | 62 | 1019.2 |
| 20260903092610 | 59 | 348 | 0.0 | 2.0 | 0.00 | 0.00 | 0.00 | 61 | 1019.3 |
| 20260903092508 | 59 | 348 | 1.0 | 4.0 | 0.00 | 0.00 | 0.00 | 61 | 1019.2 |
| 20260903092408 | 59 | 348 | 1.0 | 5.0 | 0.00 | 0.00 | 0.00 | 61 | 1019.3 |
| 20260903092307 | 59 | 348 | 1.0 | 6.0 | 0.00 | 0.00 | 0.00 | 61 | 1019.3 |
| 20260903092206 | 60 | 348 | 2.0 | 6.0 | 0.00 | 0.00 | 0.00 | 61 | 1019.2 |
| 20260903092142 | 60 | 348 | 2.0 | 6.0 | 0.00 | 0.00 | 0.00 | 61 | 1019.2 |
| 20260903092109 | 60 | 348 | 2.0 | 6.0 | 0.00 | 0.00 | 0.00 | 60 | 1019.2 |
| 20260903091902 | 60 | 348 | 2.0 | 6.0 | 0.00 | 0.00 | 0.00 | 60 | 1019.3 |
| 20260903091801 | 60 | 348 | 2.0 | 6.0 | 0.00 | 0.00 | 0.00 | 61 | 1019.3 |
| 20260903091700 | 60 | 348 | 2.0 | 6.0 | 0.00 | 0.00 | 0.00 | 60 | 1019.3 |
| 20260903091637 | 60 | 348 | 2.0 | 6.0 | 0.00 | 0.00 | 0.00 | 61 | 1019.3 |
| 20260903091558 | 60 | 348 | 2.0 | 6.0 | 0.00 | 0.00 | 0.00 | 61 | 1019.3 |
| 20260903091459 | 59 | 344 | 2.0 | 6.0 | 0.00 | 0.00 | 0.00 | 61 | 1019.3 |
| 20260903091357 | 59 | 315 | 2.0 | 6.0 | 0.00 | 0.00 | 0.00 | 61 | 1019.3 |
| 20260903091310 | 59 | 296 | 2.0 | 5.0 | 0.00 | 0.00 | 0.00 | 60 | 1019.3 |
| 20260903091158 | 59 | 224 | 2.0 | 5.0 | 0.00 | 0.00 | 0.00 | 60 | 1019.3 |
| 20260903090951 | 59 | 224 | 2.0 | 5.0 | 0.00 | 0.00 | 0.00 | 60 | 1019.2 |
| 20260903090847 | 59 | 200 | 2.0 | 5.0 | 0.00 | 0.00 | 0.00 | 60 | 1019.3 |
| 20260903090745 | 59 | 207 | 2.0 | 5.0 | 0.00 | 0.00 | 0.00 | 60 | 1019.3 |
| 20260903090645 | 59 | 196 | 2.0 | 5.0 | 0.00 | 0.00 | 0.00 | 60 | 1019.3 |
| 20260903090624 | 59 | 196 | 2.0 | 5.0 | 0.00 | 0.00 | 0.00 | 60 | 1019.2 |
| 20260903090545 | 59 | 196 | 2.0 | 5.0 | 0.00 | 0.00 | 0.00 | 60 | 1019.2 |
| 20260903090444 | 59 | 234 | 2.0 | 5.0 | 0.00 | 0.00 | 0.00 | 60 | 1019.2 |
| 20260903090339 | 59 | 234 | 2.0 | 5.0 | 0.00 | 0.00 | 0.00 | 60 | 1019.2 |
| 20260903090239 | 59 | 234 | 2.0 | 5.0 | 0.00 | 0.00 | 0.00 | 60 | 1019.3 |
| 20260903090138 | 59 | 234 | 2.0 | 5.0 | 0.00 | 0.00 | 0.00 | 60 | 1019.3 |
| 20260903090119 | 60 | 234 | 2.0 | 5.0 | 0.00 | 0.00 | 0.00 | 60 | 1019.3 |
| 20260903090039 | 60 | 234 | 2.0 | 5.0 | 0.00 | 0.00 | 0.00 | 60 | 1019.3 |
| 20260903085939 | 60 | 231 | 2.0 | 5.0 | 0.00 | 0.00 | 0.00 | 60 | 1019.3 |
| 20260903085732 | 60 | 210 | 2.0 | 5.0 | 0.00 | 0.00 | 0.00 | 61 | 1019.3 |
| 20260903085643 | 60 | 250 | 2.0 | 5.0 | 0.00 | 0.00 | 0.00 | 61 | 1019.3 |
| 20260903085638 | 60 | 247 | 2.0 | 5.0 | 0.00 | 0.00 | 0.00 | 61 | 1019.3 |
| 20260903085435 | 60 | 230 | 2.0 | 5.0 | 0.00 | 0.00 | 0.00 | 61 | 1019.2 |
| 20260903085226 | 60 | 246 | 2.0 | 5.0 | 0.00 | 0.00 | 0.00 | 61 | 1019.3 |
| 20260903085106 | 60 | 242 | 2.0 | 5.0 | 0.00 | 0.00 | 0.00 | 61 | 1019.2 |
| 20260903085027 | 60 | 219 | 2.0 | 5.0 | 0.00 | 0.00 | 0.00 | 61 | 1019.2 |
| 20260903084926 | 60 | 219 | 2.0 | 5.0 | 0.00 | 0.00 | 0.00 | 61 | 1019.2 |
| 20260903084823 | 60 | 219 | 3.0 | 5.0 | 0.00 | 0.00 | 0.00 | 61 | 1019.2 |
| 20260903084738 | 60 | 219 | 3.0 | 5.0 | 0.00 | 0.00 | 0.00 | 61 | 1019.2 |
| 20260903084731 | 60 | 219 | 3.0 | 5.0 | 0.00 | 0.00 | 0.00 | 60 | 1019.2 |
| 20260903084420 | 60 | 195 | 2.0 | 4.0 | 0.00 | 0.00 | 0.00 | 59 | 1019.2 |
| 20260903084321 | 60 | 194 | 2.0 | 4.0 | 0.00 | 0.00 | 0.00 | 59 | 1019.1 |
| 20260903084219 | 60 | 167 | 2.0 | 4.0 | 0.00 | 0.00 | 0.00 | 59 | 1019.2 |
| 20260903084118 | 60 | 167 | 1.0 | 4.0 | 0.00 | 0.00 | 0.00 | 58 | 1019.1 |
| 20260903084055 | 61 | 167 | 1.0 | 4.0 | 0.00 | 0.00 | 0.00 | 58 | 1019.1 |
| 20260903084016 | 61 | 164 | 1.0 | 4.0 | 0.00 | 0.00 | 0.00 | 58 | 1019.1 |
| 20260903083914 | 61 | 236 | 1.0 | 3.0 | 0.00 | 0.00 | 0.00 | 58 | 1019.1 |
| 20260903083813 | 61 | 236 | 1.0 | 3.0 | 0.00 | 0.00 | 0.00 | 58 | 1019.2 |
| 20260903083713 | 61 | 236 | 1.0 | 3.0 | 0.00 | 0.00 | 0.00 | 58 | 1019.2 |
| 20260903083613 | 61 | 236 | 1.0 | 3.0 | 0.00 | 0.00 | 0.00 | 58 | 1019.2 |
| 20260903083548 | 61 | 236 | 1.0 | 3.0 | 0.00 | 0.00 | 0.00 | 58 | 1019.2 |
| 20260903083510 | 61 | 236 | 1.0 | 3.0 | 0.00 | 0.00 | 0.00 | 58 | 1019.1 |
| 20260903083408 | 61 | 236 | 1.0 | 3.0 | 0.00 | 0.00 | 0.00 | 58 | 1019.2 |
| 20260903083304 | 61 | 236 | 1.0 | 3.0 | 0.00 | 0.00 | 0.00 | 58 | 1019.2 |
| 20260903083202 | 61 | 236 | 1.0 | 3.0 | 0.00 | 0.00 | 0.00 | 58 | 1019.2 |
| 20260903083102 | 61 | 236 | 1.0 | 3.0 | 0.00 | 0.00 | 0.00 | 58 | 1019.2 |
| 20260903083043 | 61 | 236 | 1.0 | 3.0 | 0.00 | 0.00 | 0.00 | 58 | 1019.2 |
| 20260903083003 | 61 | 236 | 1.0 | 3.0 | 0.00 | 0.00 | 0.00 | 58 | 1019.2 |
| 20260903082902 | 61 | 236 | 1.0 | 4.0 | 0.00 | 0.00 | 0.00 | 58 | 1019.2 |
| 20260903082758 | 61 | 236 | 1.0 | 4.0 | 0.00 | 0.00 | 0.00 | 58 | 1019.2 |
| 20260903082658 | 61 | 236 | 1.0 | 4.0 | 0.00 | 0.00 | 0.00 | 58 | 1019.3 |
| 20260903082536 | 61 | 236 | 1.0 | 4.0 | 0.00 | 0.00 | 0.00 | 58 | 1019.3 |
| 20260903082459 | 61 | 236 | 1.0 | 4.0 | 0.00 | 0.00 | 0.00 | 58 | 1019.3 |
| 20260903082357 | 61 | 236 | 1.0 | 4.0 | 0.00 | 0.00 | 0.00 | 58 | 1019.3 |
| 20260903082251 | 61 | 236 | 1.0 | 4.0 | 0.00 | 0.00 | 0.00 | 58 | 1019.3 |
| 20260903082151 | 61 | 236 | 2.0 | 4.0 | 0.00 | 0.00 | 0.00 | 58 | 1019.3 |
| 20260903082055 | 61 | 236 | 2.0 | 4.0 | 0.00 | 0.00 | 0.00 | 58 | 1019.3 |
| 20260903081849 | 61 | 246 | 2.0 | 4.0 | 0.00 | 0.00 | 0.00 | 58 | 1019.3 |
| 20260903081745 | 61 | 246 | 2.0 | 4.0 | 0.00 | 0.00 | 0.00 | 58 | 1019.3 |
| 20260903081644 | 62 | 246 | 2.0 | 4.0 | 0.00 | 0.00 | 0.00 | 58 | 1019.2 |
| 20260903081630 | 62 | 244 | 2.0 | 4.0 | 0.00 | 0.00 | 0.00 | 58 | 1019.2 |
| 20260903081445 | 62 | 261 | 2.0 | 5.0 | 0.00 | 0.00 | 0.00 | 59 | 1019.2 |
| 20260903081344 | 62 | 240 | 2.0 | 5.0 | 0.00 | 0.00 | 0.00 | 58 | 1019.2 |
| 20260903081245 | 62 | 240 | 2.0 | 5.0 | 0.00 | 0.00 | 0.00 | 58 | 1019.2 |
| 20260903081039 | 62 | 238 | 3.0 | 6.0 | 0.00 | 0.00 | 0.00 | 59 | 1019.1 |
| 20260903081018 | 62 | 223 | 3.0 | 6.0 | 0.00 | 0.00 | 0.00 | 59 | 1019.1 |
| 20260903080945 | 62 | 223 | 3.0 | 6.0 | 0.00 | 0.00 | 0.00 | 59 | 1019.1 |
| 20260903080735 | 62 | 231 | 3.0 | 6.0 | 0.00 | 0.00 | 0.00 | 59 | 1019.1 |
| 20260903080639 | 62 | 234 | 3.0 | 6.0 | 0.00 | 0.00 | 0.00 | 59 | 1019.1 |
| 20260903080513 | 62 | 215 | 3.0 | 6.0 | 0.00 | 0.00 | 0.00 | 59 | 1019.1 |
| 20260903080433 | 62 | 229 | 3.0 | 6.0 | 0.00 | 0.00 | 0.00 | 59 | 1019.1 |
| 20260903080332 | 62 | 213 | 3.0 | 6.0 | 0.00 | 0.00 | 0.00 | 59 | 1019.1 |
| 20260903080233 | 62 | 244 | 3.0 | 6.0 | 0.00 | 0.00 | 0.00 | 59 | 1019.1 |
| 20260903080006 | 62 | 212 | 3.0 | 6.0 | 0.00 | 0.00 | 0.00 | 59 | 1019.1 |
| 20260903075926 | 62 | 194 | 3.0 | 6.0 | 0.00 | 0.00 | 0.00 | 59 | 1019.1 |
| 20260903075826 | 62 | 222 | 2.0 | 6.0 | 0.00 | 0.00 | 0.00 | 59 | 1019.1 |
| 20260903075720 | 62 | 223 | 2.0 | 6.0 | 0.00 | 0.00 | 0.00 | 60 | 1019.1 |
| 20260903075627 | 62 | 239 | 2.0 | 6.0 | 0.00 | 0.00 | 0.00 | 60 | 1019.1 |
| 20260903075501 | 62 | 200 | 2.0 | 6.0 | 0.00 | 0.00 | 0.00 | 60 | 1019.2 |
| 20260903075426 | 62 | 219 | 2.0 | 6.0 | 0.00 | 0.00 | 0.00 | 60 | 1019.2 |
| 20260903075221 | 62 | 249 | 2.0 | 6.0 | 0.00 | 0.00 | 0.00 | 60 | 1019.2 |
| 20260903075118 | 62 | 231 | 2.0 | 6.0 | 0.00 | 0.00 | 0.00 | 60 | 1019.3 |
| 20260903075100 | 62 | 216 | 2.0 | 5.0 | 0.00 | 0.00 | 0.00 | 60 | 1019.2 |
| 20260903074916 | 62 | 216 | 2.0 | 5.0 | 0.00 | 0.00 | 0.00 | 60 | 1019.2 |
| 20260903074815 | 62 | 228 | 2.0 | 5.0 | 0.00 | 0.00 | 0.00 | 60 | 1019.2 |
| 20260903074715 | 62 | 225 | 2.0 | 5.0 | 0.00 | 0.00 | 0.00 | 60 | 1019.2 |
| 20260903074554 | 62 | 221 | 2.0 | 4.0 | 0.00 | 0.00 | 0.00 | 60 | 1019.2 |
| 20260903074408 | 62 | 216 | 2.0 | 4.0 | 0.00 | 0.00 | 0.00 | 60 | 1019.2 |
| 20260903074308 | 62 | 211 | 2.0 | 4.0 | 0.00 | 0.00 | 0.00 | 60 | 1019.2 |
| 20260903074214 | 62 | 216 | 2.0 | 4.0 | 0.00 | 0.00 | 0.00 | 60 | 1019.2 |
| 20260903074007 | 62 | 211 | 2.0 | 4.0 | 0.00 | 0.00 | 0.00 | 60 | 1019.3 |
| 20260903073943 | 62 | 217 | 2.0 | 4.0 | 0.00 | 0.00 | 0.00 | 60 | 1019.3 |
| 20260903073908 | 62 | 217 | 2.0 | 4.0 | 0.00 | 0.00 | 0.00 | 60 | 1019.3 |
| 20260903073658 | 62 | 237 | 2.0 | 4.0 | 0.00 | 0.00 | 0.00 | 61 | 1019.3 |
| 20260903073556 | 62 | 215 | 2.0 | 4.0 | 0.00 | 0.00 | 0.00 | 61 | 1019.3 |
| 20260903073457 | 62 | 234 | 2.0 | 4.0 | 0.00 | 0.00 | 0.00 | 61 | 1019.3 |
| 20260903073436 | 62 | 221 | 2.0 | 4.0 | 0.00 | 0.00 | 0.00 | 61 | 1019.3 |
| 20260903073357 | 62 | 233 | 2.0 | 5.0 | 0.00 | 0.00 | 0.00 | 61 | 1019.3 |
| 20260903073256 | 62 | 233 | 2.0 | 5.0 | 0.00 | 0.00 | 0.00 | 62 | 1019.3 |
| 20260903073150 | 62 | 233 | 2.0 | 5.0 | 0.00 | 0.00 | 0.00 | 62 | 1019.3 |
| 20260903073050 | 62 | 233 | 2.0 | 5.0 | 0.00 | 0.00 | 0.00 | 62 | 1019.3 |
| 20260903073002 | 62 | 233 | 3.0 | 5.0 | 0.00 | 0.00 | 0.00 | 62 | 1019.3 |
| 20260903072956 | 62 | 233 | 3.0 | 5.0 | 0.00 | 0.00 | 0.00 | 62 | 1019.4 |
| 20260903072750 | 62 | 233 | 3.0 | 8.0 | 0.00 | 0.00 | 0.00 | 62 | 1019.4 |
| 20260903072646 | 62 | 233 | 3.0 | 8.0 | 0.00 | 0.00 | 0.00 | 63 | 1019.4 |
| 20260903072544 | 62 | 233 | 3.0 | 8.0 | 0.00 | 0.00 | 0.00 | 63 | 1019.4 |
| 20260903072424 | 62 | 233 | 3.0 | 8.0 | 0.00 | 0.00 | 0.00 | 63 | 1019.4 |
| 20260903072351 | 62 | 233 | 3.0 | 8.0 | 0.00 | 0.00 | 0.00 | 63 | 1019.4 |
| 20260903072145 | 62 | 231 | 3.0 | 8.0 | 0.00 | 0.00 | 0.00 | 63 | 1019.6 |
| 20260903071938 | 62 | 229 | 2.0 | 8.0 | 0.00 | 0.00 | 0.00 | 64 | 1019.6 |
| 20260903071919 | 63 | 227 | 2.0 | 8.0 | 0.00 | 0.00 | 0.00 | 64 | 1019.6 |
| 20260903071839 | 63 | 242 | 2.0 | 8.0 | 0.00 | 0.00 | 0.00 | 64 | 1019.6 |
| 20260903071738 | 63 | 237 | 2.0 | 7.0 | 0.00 | 0.00 | 0.00 | 64 | 1019.4 |
| 20260903071639 | 63 | 230 | 2.0 | 4.0 | 0.00 | 0.00 | 0.00 | 63 | 1019.4 |
| 20260903071444 | 63 | 211 | 2.0 | 4.0 | 0.00 | 0.00 | 0.00 | 62 | 1019.3 |
| 20260903071438 | 63 | 211 | 2.0 | 3.0 | 0.00 | 0.00 | 0.00 | 62 | 1019.3 |
| 20260903071232 | 63 | 211 | 1.0 | 2.0 | 0.00 | 0.00 | 0.00 | 61 | 1019.3 |
| 20260903071130 | 63 | 211 | 1.0 | 2.0 | 0.00 | 0.00 | 0.00 | 61 | 1019.3 |
| 20260903071031 | 63 | 211 | 1.0 | 2.0 | 0.00 | 0.00 | 0.00 | 61 | 1019.3 |
| 20260903070906 | 63 | 211 | 1.0 | 2.0 | 0.00 | 0.00 | 0.00 | 61 | 1019.4 |
| 20260903070828 | 63 | 211 | 1.0 | 2.0 | 0.00 | 0.00 | 0.00 | 61 | 1019.4 |
| 20260903070725 | 63 | 211 | 1.0 | 2.0 | 0.00 | 0.00 | 0.00 | 61 | 1019.4 |
| 20260903070625 | 63 | 211 | 1.0 | 2.0 | 0.00 | 0.00 | 0.00 | 61 | 1019.6 |
| 20260903070525 | 64 | 211 | 1.0 | 2.0 | 0.00 | 0.00 | 0.00 | 61 | 1019.6 |
| 20260903070401 | 64 | 211 | 1.0 | 2.0 | 0.00 | 0.00 | 0.00 | 61 | 1019.7 |
| 20260903070322 | 64 | 211 | 1.0 | 2.0 | 0.00 | 0.00 | 0.00 | 61 | 1019.6 |
| 20260903070221 | 64 | 211 | 1.0 | 2.0 | 0.00 | 0.00 | 0.00 | 61 | 1019.6 |
| 20260903070122 | 64 | 211 | 1.0 | 2.0 | 0.00 | 0.00 | 0.00 | 61 | 1019.7 |
| 20260903065914 | 64 | 211 | 1.0 | 2.0 | 0.00 | 0.00 | 0.00 | 61 | 1019.8 |
| 20260903065855 | 64 | 211 | 1.0 | 2.0 | 0.00 | 0.00 | 0.00 | 61 | 1019.8 |
| 20260903065814 | 64 | 211 | 1.0 | 2.0 | 0.00 | 0.00 | 0.00 | 61 | 1019.7 |
| 20260903065714 | 64 | 211 | 1.0 | 2.0 | 0.00 | 0.00 | 0.00 | 61 | 1019.7 |
| 20260903065610 | 64 | 211 | 1.0 | 4.0 | 0.00 | 0.00 | 0.00 | 61 | 1019.8 |
| 20260903065508 | 64 | 211 | 1.0 | 4.0 | 0.00 | 0.00 | 0.00 | 61 | 1019.8 |
| 20260903065409 | 64 | 211 | 1.0 | 5.0 | 0.00 | 0.00 | 0.00 | 61 | 1019.8 |
| 20260903065348 | 64 | 211 | 1.0 | 6.0 | 0.00 | 0.00 | 0.00 | 61 | 1019.8 |
| 20260903065309 | 64 | 211 | 2.0 | 7.0 | 0.00 | 0.00 | 0.00 | 61 | 1019.9 |
| 20260903065209 | 64 | 211 | 2.0 | 9.0 | 0.00 | 0.00 | 0.00 | 61 | 1019.9 |
| 20260903065010 | 64 | 211 | 3.0 | 9.0 | 0.00 | 0.00 | 0.00 | 61 | 1019.9 |
| 20260903064842 | 64 | 211 | 3.0 | 9.0 | 0.00 | 0.00 | 0.00 | 62 | 1019.9 |
| 20260903064802 | 64 | 211 | 3.0 | 9.0 | 0.00 | 0.00 | 0.00 | 62 | 1019.9 |
| 20260903064701 | 64 | 211 | 3.0 | 9.0 | 0.00 | 0.00 | 0.00 | 62 | 1019.9 |
| 20260903064557 | 64 | 224 | 3.0 | 9.0 | 0.00 | 0.00 | 0.00 | 62 | 1019.9 |
| 20260903064456 | 64 | 233 | 3.0 | 9.0 | 0.00 | 0.00 | 0.00 | 62 | 1020.0 |
| 20260903064409 | 64 | 240 | 3.0 | 9.0 | 0.00 | 0.00 | 0.00 | 62 | 1020.0 |
| 20260903064403 | 64 | 213 | 3.0 | 9.0 | 0.00 | 0.00 | 0.00 | 62 | 1020.0 |
| 20260903064156 | 64 | 268 | 2.0 | 8.0 | 0.00 | 0.00 | 0.00 | 62 | 1020.0 |
| 20260903064053 | 64 | 244 | 2.0 | 7.0 | 0.00 | 0.00 | 0.00 | 62 | 1019.9 |
| 20260903063952 | 64 | 248 | 2.0 | 4.0 | 0.00 | 0.00 | 0.00 | 61 | 1020.0 |
| 20260903063852 | 64 | 247 | 1.0 | 4.0 | 0.00 | 0.00 | 0.00 | 61 | 1019.9 |
| 20260903063839 | 64 | 237 | 1.0 | 4.0 | 0.00 | 0.00 | 0.00 | 61 | 1019.9 |
| 20260903063752 | 64 | 244 | 1.0 | 4.0 | 0.00 | 0.00 | 0.00 | 61 | 1019.9 |
| 20260903063650 | 64 | 228 | 1.0 | 4.0 | 0.00 | 0.00 | 0.00 | 61 | 1020.0 |
| 20260903063546 | 64 | 228 | 1.0 | 3.0 | 0.00 | 0.00 | 0.00 | 61 | 1020.0 |
| 20260903063444 | 64 | 228 | 1.0 | 3.0 | 0.00 | 0.00 | 0.00 | 61 | 1019.9 |
| 20260903063351 | 64 | 228 | 1.0 | 3.0 | 0.00 | 0.00 | 0.00 | 61 | 1019.9 |
| 20260903063144 | 64 | 228 | 1.0 | 3.0 | 0.00 | 0.00 | 0.00 | 61 | 1020.0 |
| 20260903063045 | 65 | 228 | 1.0 | 3.0 | 0.00 | 0.00 | 0.00 | 61 | 1020.0 |
| 20260903062842 | 65 | 228 | 1.0 | 3.0 | 0.00 | 0.00 | 0.00 | 62 | 1020.0 |
| 20260903062838 | 65 | 228 | 1.0 | 3.0 | 0.00 | 0.00 | 0.00 | 61 | 1020.0 |
| 20260903062738 | 65 | 130 | 1.0 | 3.0 | 0.00 | 0.00 | 0.00 | 61 | 1020.0 |
| 20260903062638 | 65 | 130 | 1.0 | 3.0 | 0.00 | 0.00 | 0.00 | 61 | 1020.0 |
| 20260903062534 | 65 | 130 | 1.0 | 3.0 | 0.00 | 0.00 | 0.00 | 61 | 1020.0 |
| 20260903062433 | 65 | 130 | 1.0 | 3.0 | 0.00 | 0.00 | 0.00 | 62 | 1020.0 |
| 20260903062332 | 65 | 130 | 1.0 | 3.0 | 0.00 | 0.00 | 0.00 | 62 | 1020.0 |
| 20260903062232 | 65 | 130 | 1.0 | 3.0 | 0.00 | 0.00 | 0.00 | 62 | 1020.0 |
| 20260903062132 | 65 | 130 | 0.0 | 3.0 | 0.00 | 0.00 | 0.00 | 62 | 1020.0 |
| 20260903062033 | 65 | 130 | 0.0 | 3.0 | 0.00 | 0.00 | 0.00 | 62 | 1020.0 |
| 20260903061931 | 65 | 130 | 0.0 | 3.0 | 0.00 | 0.00 | 0.00 | 62 | 1020.2 |
| 20260903061839 | 65 | 130 | 0.0 | 3.0 | 0.00 | 0.00 | 0.00 | 62 | 1020.2 |
| 20260903061835 | 65 | 130 | 0.0 | 3.0 | 0.00 | 0.00 | 0.00 | 62 | 1020.0 |
| 20260903061626 | 65 | 130 | 0.0 | 2.0 | 0.00 | 0.00 | 0.00 | 62 | 1020.0 |
| 20260903061523 | 65 | 130 | 0.0 | 0.0 | 0.00 | 0.00 | 0.00 | 62 | 1019.9 |
| 20260903061432 | 65 | 130 | 0.0 | 0.0 | 0.00 | 0.00 | 0.00 | 61 | 1019.9 |
| 20260903061425 | 65 | 130 | 0.0 | 0.0 | 0.00 | 0.00 | 0.00 | 61 | 1019.9 |
| 20260903061221 | 65 | 130 | 0.0 | 1.0 | 0.00 | 0.00 | 0.00 | 61 | 1019.9 |
| 20260903061120 | 65 | 130 | 0.0 | 1.0 | 0.00 | 0.00 | 0.00 | 61 | 1019.8 |
| 20260903061018 | 65 | 130 | 0.0 | 2.0 | 0.00 | 0.00 | 0.00 | 61 | 1019.8 |
| 20260903060918 | 65 | 130 | 0.0 | 2.0 | 0.00 | 0.00 | 0.00 | 61 | 1019.8 |
| 20260903060837 | 65 | 130 | 0.0 | 3.0 | 0.00 | 0.00 | 0.00 | 61 | 1019.8 |
| 20260903060818 | 65 | 130 | 1.0 | 3.0 | 0.00 | 0.00 | 0.00 | 61 | 1019.8 |
| 20260903060717 | 65 | 130 | 1.0 | 3.0 | 0.00 | 0.00 | 0.00 | 61 | 1019.8 |
| 20260903060621 | 65 | 130 | 1.0 | 3.0 | 0.00 | 0.00 | 0.00 | 61 | 1019.8 |
| 20260903060412 | 65 | 130 | 1.0 | 3.0 | 0.00 | 0.00 | 0.00 | 61 | 1019.8 |
| 20260903060310 | 65 | 130 | 1.0 | 3.0 | 0.00 | 0.00 | 0.00 | 61 | 1019.8 |
| 20260903060210 | 65 | 130 | 1.0 | 3.0 | 0.00 | 0.00 | 0.00 | 61 | 1019.9 |
| 20260903060108 | 65 | 130 | 1.0 | 3.0 | 0.00 | 0.00 | 0.00 | 61 | 1019.9 |
| 20260903060005 | 65 | 130 | 1.0 | 3.0 | 0.00 | 0.00 | 0.00 | 61 | 1019.9 |
| 20260903055902 | 65 | 130 | 1.0 | 3.0 | 0.00 | 0.00 | 0.00 | 60 | 1019.9 |
| 20260903055837 | 66 | 130 | 1.0 | 3.0 | 0.00 | 0.00 | 0.00 | 60 | 1019.9 |
| 20260903055802 | 66 | 130 | 1.0 | 3.0 | 0.00 | 0.00 | 0.00 | 60 | 1019.9 |
| 20260903055703 | 66 | 130 | 1.0 | 3.0 | 0.00 | 0.00 | 0.00 | 60 | 1019.9 |
| 20260903055602 | 66 | 130 | 1.0 | 3.0 | 0.00 | 0.00 | 0.00 | 60 | 1019.9 |
| 20260903055501 | 66 | 130 | 1.0 | 3.0 | 0.00 | 0.00 | 0.00 | 60 | 1020.0 |
| 20260903055335 | 66 | 130 | 1.0 | 3.0 | 0.00 | 0.00 | 0.00 | 60 | 1020.0 |
| 20260903055300 | 66 | 130 | 1.0 | 3.0 | 0.00 | 0.00 | 0.00 | 60 | 1020.0 |
| 20260903055158 | 66 | 130 | 1.0 | 3.0 | 0.00 | 0.00 | 0.00 | 60 | 1020.0 |
| 20260903055056 | 66 | 130 | 1.0 | 3.0 | 0.00 | 0.00 | 0.00 | 60 | 1020.0 |
| 20260903054952 | 66 | 130 | 1.0 | 3.0 | 0.00 | 0.00 | 0.00 | 60 | 1020.0 |
| 20260903054941 | 66 | 130 | 2.0 | 3.0 | 0.00 | 0.00 | 0.00 | 60 | 1020.0 |
| 20260903054751 | 66 | 130 | 2.0 | 3.0 | 0.00 | 0.00 | 0.00 | 59 | 1020.0 |
| 20260903054650 | 66 | 130 | 2.0 | 4.0 | 0.00 | 0.00 | 0.00 | 59 | 1020.0 |
| 20260903054550 | 66 | 130 | 2.0 | 4.0 | 0.00 | 0.00 | 0.00 | 59 | 1020.0 |
| 20260903054503 | 66 | 176 | 1.0 | 4.0 | 0.00 | 0.00 | 0.00 | 59 | 1020.0 |
| 20260903054350 | 66 | 176 | 2.0 | 5.0 | 0.00 | 0.00 | 0.00 | 59 | 1019.9 |
| 20260903054145 | 66 | 250 | 2.0 | 6.0 | 0.00 | 0.00 | 0.00 | 58 | 1020.0 |
| 20260903054044 | 66 | 250 | 2.0 | 6.0 | 0.00 | 0.00 | 0.00 | 58 | 1020.0 |
| 20260903053938 | 66 | 232 | 2.0 | 6.0 | 0.00 | 0.00 | 0.00 | 58 | 1020.0 |
| 20260903053833 | 66 | 232 | 2.0 | 6.0 | 0.00 | 0.00 | 0.00 | 58 | 1019.9 |
| 20260903053746 | 66 | 196 | 2.0 | 6.0 | 0.00 | 0.00 | 0.00 | 58 | 1019.9 |
| 20260903053538 | 66 | 197 | 2.0 | 6.0 | 0.00 | 0.00 | 0.00 | 58 | 1019.9 |
| 20260903053433 | 66 | 187 | 2.0 | 6.0 | 0.00 | 0.00 | 0.00 | 58 | 1019.9 |
| 20260903053333 | 66 | 194 | 2.0 | 6.0 | 0.00 | 0.00 | 0.00 | 58 | 1019.8 |
| 20260903053232 | 66 | 188 | 2.0 | 5.0 | 0.00 | 0.00 | 0.00 | 58 | 1019.8 |
| 20260903053132 | 66 | 197 | 2.0 | 5.0 | 0.00 | 0.00 | 0.00 | 58 | 1019.8 |
| 20260903053031 | 66 | 200 | 3.0 | 5.0 | 0.00 | 0.00 | 0.00 | 58 | 1019.7 |
| 20260903052929 | 66 | 257 | 3.0 | 5.0 | 0.00 | 0.00 | 0.00 | 58 | 1019.6 |
| 20260903052826 | 66 | 227 | 3.0 | 5.0 | 0.00 | 0.00 | 0.00 | 58 | 1019.6 |
| 20260903052727 | 67 | 227 | 3.0 | 5.0 | 0.00 | 0.00 | 0.00 | 58 | 1019.7 |
| 20260903052626 | 66 | 237 | 3.0 | 5.0 | 0.00 | 0.00 | 0.00 | 58 | 1019.7 |
| 20260903052526 | 66 | 257 | 3.0 | 5.0 | 0.00 | 0.00 | 0.00 | 59 | 1019.7 |
| 20260903052440 | 67 | 251 | 3.0 | 5.0 | 0.00 | 0.00 | 0.00 | 59 | 1019.7 |
| 20260903052320 | 67 | 242 | 3.0 | 5.0 | 0.00 | 0.00 | 0.00 | 59 | 1019.8 |
| 20260903052220 | 67 | 250 | 2.0 | 5.0 | 0.00 | 0.00 | 0.00 | 59 | 1019.7 |
| 20260903052120 | 67 | 288 | 2.0 | 5.0 | 0.00 | 0.00 | 0.00 | 59 | 1019.7 |
| 20260903052020 | 67 | 248 | 2.0 | 5.0 | 0.00 | 0.00 | 0.00 | 59 | 1019.7 |
| 20260903051912 | 67 | 273 | 2.0 | 5.0 | 0.00 | 0.00 | 0.00 | 59 | 1019.6 |
| 20260903051810 | 67 | 211 | 2.0 | 5.0 | 0.00 | 0.00 | 0.00 | 59 | 1019.6 |
| 20260903051711 | 67 | 211 | 2.0 | 5.0 | 0.00 | 0.00 | 0.00 | 59 | 1019.6 |
| 20260903051610 | 67 | 211 | 2.0 | 5.0 | 0.00 | 0.00 | 0.00 | 58 | 1019.6 |
| 20260903051510 | 67 | 188 | 2.0 | 5.0 | 0.00 | 0.00 | 0.00 | 58 | 1019.6 |
| 20260903051434 | 67 | 188 | 2.0 | 5.0 | 0.00 | 0.00 | 0.00 | 58 | 1019.6 |
| 20260903051307 | 67 | 196 | 2.0 | 5.0 | 0.00 | 0.00 | 0.00 | 58 | 1019.6 |
| 20260903051207 | 67 | 229 | 1.0 | 5.0 | 0.00 | 0.00 | 0.00 | 57 | 1019.6 |
| 20260903051107 | 67 | 248 | 1.0 | 5.0 | 0.00 | 0.00 | 0.00 | 57 | 1019.6 |
| 20260903051004 | 67 | 235 | 1.0 | 4.0 | 0.00 | 0.00 | 0.00 | 57 | 1019.6 |
| 20260903050904 | 67 | 229 | 1.0 | 3.0 | 0.00 | 0.00 | 0.00 | 56 | 1019.7 |
| 20260903050821 | 67 | 111 | 1.0 | 3.0 | 0.00 | 0.00 | 0.00 | 56 | 1019.6 |
| 20260903050802 | 67 | 110 | 1.0 | 3.0 | 0.00 | 0.00 | 0.00 | 56 | 1019.6 |
| 20260903050703 | 67 | 110 | 1.0 | 3.0 | 0.00 | 0.00 | 0.00 | 56 | 1019.4 |
| 20260903050601 | 67 | 110 | 1.0 | 4.0 | 0.00 | 0.00 | 0.00 | 56 | 1019.6 |
| 20260903050459 | 68 | 134 | 1.0 | 4.0 | 0.00 | 0.00 | 0.00 | 56 | 1019.6 |
| 20260903050357 | 68 | 134 | 2.0 | 4.0 | 0.00 | 0.00 | 0.00 | 55 | 1019.7 |
| 20260903050315 | 68 | 134 | 2.0 | 5.0 | 0.00 | 0.00 | 0.00 | 55 | 1019.7 |
| 20260903050256 | 68 | 134 | 2.0 | 5.0 | 0.00 | 0.00 | 0.00 | 55 | 1019.7 |
| 20260903050154 | 68 | 134 | 2.0 | 5.0 | 0.00 | 0.00 | 0.00 | 55 | 1019.7 |
| 20260903050055 | 68 | 134 | 2.0 | 5.0 | 0.00 | 0.00 | 0.00 | 55 | 1019.7 |
| 20260903045952 | 68 | 134 | 2.0 | 5.0 | 0.00 | 0.00 | 0.00 | 55 | 1019.7 |
| 20260903045849 | 68 | 134 | 2.0 | 5.0 | 0.00 | 0.00 | 0.00 | 55 | 1019.6 |
| 20260903045809 | 68 | 128 | 3.0 | 5.0 | 0.00 | 0.00 | 0.00 | 55 | 1019.6 |
| 20260903045755 | 68 | 125 | 3.0 | 8.0 | 0.00 | 0.00 | 0.00 | 55 | 1019.6 |
| 20260903045554 | 68 | 61 | 3.0 | 8.0 | 0.00 | 0.00 | 0.00 | 55 | 1019.6 |
| 20260903045306 | 68 | 325 | 4.0 | 9.0 | 0.00 | 0.00 | 0.00 | 55 | 1019.9 |
| 20260903045240 | 68 | 306 | 4.0 | 9.0 | 0.00 | 0.00 | 0.00 | 55 | 1019.9 |
| 20260903045148 | 68 | 300 | 4.0 | 9.0 | 0.00 | 0.00 | 0.00 | 55 | 1019.8 |
| 20260903044940 | 68 | 67 | 5.0 | 9.0 | 0.00 | 0.00 | 0.00 | 55 | 1019.8 |
| 20260903044903 | 68 | 79 | 4.0 | 9.0 | 0.00 | 0.00 | 0.00 | 56 | 1019.8 |
| 20260903044750 | 68 | 80 | 4.0 | 9.0 | 0.00 | 0.00 | 0.00 | 56 | 1019.8 |
| 20260903044434 | 68 | 103 | 3.0 | 9.0 | 0.00 | 0.00 | 0.00 | 56 | 1019.8 |
| 20260903044333 | 68 | 102 | 2.0 | 9.0 | 0.00 | 0.00 | 0.00 | 55 | 1019.9 |
| 20260903044251 | 68 | 129 | 2.0 | 6.0 | 0.00 | 0.00 | 0.00 | 55 | 1019.9 |
| 20260903044233 | 68 | 126 | 2.0 | 6.0 | 0.00 | 0.00 | 0.00 | 56 | 1019.9 |
| 20260903044132 | 67 | 120 | 2.0 | 6.0 | 0.00 | 0.00 | 0.00 | 56 | 1020.0 |
| 20260903044030 | 67 | 113 | 1.0 | 6.0 | 0.00 | 0.00 | 0.00 | 56 | 1020.2 |
| 20260903043928 | 67 | 92 | 1.0 | 4.0 | 0.00 | 0.00 | 0.00 | 56 | 1020.2 |
| 20260903043828 | 67 | 119 | 1.0 | 3.0 | 0.00 | 0.00 | 0.00 | 56 | 1020.3 |
| 20260903043733 | 67 | 122 | 1.0 | 3.0 | 0.00 | 0.00 | 0.00 | 56 | 1020.4 |
| 20260903043525 | 67 | 199 | 1.0 | 3.0 | 0.00 | 0.00 | 0.00 | 56 | 1020.4 |
| 20260903043422 | 67 | 199 | 2.0 | 3.0 | 0.00 | 0.00 | 0.00 | 56 | 1020.4 |
| 20260903043320 | 67 | 199 | 2.0 | 4.0 | 0.00 | 0.00 | 0.00 | 56 | 1020.4 |
| 20260903043238 | 67 | 199 | 2.0 | 4.0 | 0.00 | 0.00 | 0.00 | 56 | 1020.4 |
| 20260903043221 | 67 | 214 | 2.0 | 4.0 | 0.00 | 0.00 | 0.00 | 56 | 1020.4 |
| 20260903043125 | 67 | 284 | 2.0 | 4.0 | 0.00 | 0.00 | 0.00 | 56 | 1020.4 |
| 20260903042916 | 67 | 284 | 2.0 | 4.0 | 0.00 | 0.00 | 0.00 | 56 | 1020.4 |
| 20260903042810 | 67 | 284 | 2.0 | 4.0 | 0.00 | 0.00 | 0.00 | 56 | 1020.3 |
| 20260903042711 | 67 | 284 | 2.0 | 4.0 | 0.00 | 0.00 | 0.00 | 56 | 1020.3 |
| 20260903042610 | 67 | 284 | 2.0 | 4.0 | 0.00 | 0.00 | 0.00 | 56 | 1020.3 |
| 20260903042511 | 67 | 284 | 1.0 | 4.0 | 0.00 | 0.00 | 0.00 | 56 | 1020.2 |
| 20260903042410 | 67 | 284 | 1.0 | 4.0 | 0.00 | 0.00 | 0.00 | 57 | 1020.2 |
| 20260903042311 | 67 | 265 | 1.0 | 3.0 | 0.00 | 0.00 | 0.00 | 57 | 1020.3 |
| 20260903042208 | 67 | 265 | 1.0 | 3.0 | 0.00 | 0.00 | 0.00 | 57 | 1020.2 |
| 20260903042108 | 67 | 265 | 1.0 | 6.0 | 0.00 | 0.00 | 0.00 | 57 | 1020.3 |
| 20260903042011 | 67 | 265 | 1.0 | 6.0 | 0.00 | 0.00 | 0.00 | 57 | 1020.3 |
| 20260903041804 | 67 | 265 | 1.0 | 6.0 | 0.00 | 0.00 | 0.00 | 57 | 1020.3 |
| 20260903041702 | 67 | 265 | 1.0 | 6.0 | 0.00 | 0.00 | 0.00 | 57 | 1020.3 |
| 20260903041603 | 67 | 265 | 2.0 | 6.0 | 0.00 | 0.00 | 0.00 | 58 | 1020.3 |
| 20260903041505 | 66 | 265 | 2.0 | 6.0 | 0.00 | 0.00 | 0.00 | 58 | 1020.3 |
| 20260903041254 | 66 | 265 | 2.0 | 6.0 | 0.00 | 0.00 | 0.00 | 58 | 1020.3 |
| 20260903041214 | 66 | 242 | 3.0 | 6.0 | 0.00 | 0.00 | 0.00 | 58 | 1020.3 |
| 20260903041154 | 66 | 242 | 3.0 | 6.0 | 0.00 | 0.00 | 0.00 | 58 | 1020.3 |
| 20260903041055 | 66 | 265 | 2.0 | 6.0 | 0.00 | 0.00 | 0.00 | 58 | 1020.3 |
| 20260903040959 | 66 | 276 | 3.0 | 6.0 | 0.00 | 0.00 | 0.00 | 59 | 1020.3 |
| 20260903040748 | 66 | 306 | 3.0 | 6.0 | 0.00 | 0.00 | 0.00 | 60 | 1020.3 |
| 20260903040708 | 66 | 290 | 3.0 | 6.0 | 0.00 | 0.00 | 0.00 | 60 | 1020.3 |
| 20260903040646 | 66 | 290 | 3.0 | 6.0 | 0.00 | 0.00 | 0.00 | 60 | 1020.3 |
| 20260903040547 | 66 | 263 | 3.0 | 6.0 | 0.00 | 0.00 | 0.00 | 60 | 1020.3 |
| 20260903040446 | 67 | 260 | 3.0 | 6.0 | 0.00 | 0.00 | 0.00 | 60 | 1020.4 |
| 20260903040346 | 67 | 254 | 3.0 | 6.0 | 0.00 | 0.00 | 0.00 | 60 | 1020.4 |
| 20260903040309 | 67 | 281 | 3.0 | 7.0 | 0.00 | 0.00 | 0.00 | 60 | 1020.4 |
| 20260903040141 | 67 | 265 | 3.0 | 7.0 | 0.00 | 0.00 | 0.00 | 60 | 1020.4 |
| 20260903040040 | 67 | 248 | 3.0 | 7.0 | 0.00 | 0.00 | 0.00 | 59 | 1020.4 |
| 20260903035940 | 67 | 262 | 3.0 | 7.0 | 0.00 | 0.00 | 0.00 | 59 | 1020.4 |
| 20260903035841 | 67 | 218 | 3.0 | 7.0 | 0.00 | 0.00 | 0.00 | 59 | 1020.4 |
| 20260903035656 | 67 | 225 | 3.0 | 7.0 | 0.00 | 0.00 | 0.00 | 59 | 1020.4 |
| 20260903035634 | 67 | 239 | 3.0 | 7.0 | 0.00 | 0.00 | 0.00 | 59 | 1020.4 |
| 20260903035534 | 67 | 252 | 3.0 | 7.0 | 0.00 | 0.00 | 0.00 | 59 | 1020.4 |
| 20260903035434 | 67 | 238 | 2.0 | 7.0 | 0.00 | 0.00 | 0.00 | 58 | 1020.4 |
| 20260903035334 | 67 | 240 | 2.0 | 7.0 | 0.00 | 0.00 | 0.00 | 58 | 1020.4 |
| 20260903035230 | 67 | 223 | 2.0 | 7.0 | 0.00 | 0.00 | 0.00 | 57 | 1020.4 |
| 20260903035151 | 67 | 234 | 2.0 | 4.0 | 0.00 | 0.00 | 0.00 | 57 | 1020.4 |
| 20260903035137 | 67 | 233 | 2.0 | 4.0 | 0.00 | 0.00 | 0.00 | 57 | 1020.4 |
| 20260903034930 | 67 | 300 | 2.0 | 4.0 | 0.00 | 0.00 | 0.00 | 58 | 1020.4 |
| 20260903034830 | 67 | 300 | 2.0 | 5.0 | 0.00 | 0.00 | 0.00 | 58 | 1020.3 |
| 20260903034729 | 67 | 300 | 2.0 | 5.0 | 0.00 | 0.00 | 0.00 | 58 | 1020.2 |
| 20260903034627 | 67 | 300 | 2.0 | 5.0 | 0.00 | 0.00 | 0.00 | 58 | 1020.2 |
| 20260903034526 | 67 | 300 | 2.0 | 5.0 | 0.00 | 0.00 | 0.00 | 58 | 1020.2 |
| 20260903034424 | 67 | 300 | 2.0 | 5.0 | 0.00 | 0.00 | 0.00 | 57 | 1020.0 |
| 20260903034352 | 68 | 300 | 2.0 | 5.0 | 0.00 | 0.00 | 0.00 | 57 | 1020.0 |
| 20260903034120 | 68 | 300 | 2.0 | 5.0 | 0.00 | 0.00 | 0.00 | 57 | 1019.9 |
| 20260903034020 | 68 | 300 | 2.0 | 5.0 | 0.00 | 0.00 | 0.00 | 57 | 1020.0 |
| 20260903033923 | 68 | 300 | 2.0 | 5.0 | 0.00 | 0.00 | 0.00 | 57 | 1020.0 |
| 20260903033714 | 68 | 296 | 2.0 | 5.0 | 0.00 | 0.00 | 0.00 | 57 | 1020.0 |
| 20260903033614 | 68 | 266 | 2.0 | 5.0 | 0.00 | 0.00 | 0.00 | 57 | 1020.0 |
| 20260903033520 | 68 | 250 | 2.0 | 5.0 | 0.00 | 0.00 | 0.00 | 57 | 1020.0 |
| 20260903033311 | 69 | 250 | 2.0 | 5.0 | 0.00 | 0.00 | 0.00 | 56 | 1020.0 |
| 20260903033208 | 69 | 250 | 3.0 | 5.0 | 0.00 | 0.00 | 0.00 | 56 | 1020.0 |
| 20260903033108 | 69 | 341 | 3.0 | 5.0 | 0.00 | 0.00 | 0.00 | 56 | 1020.0 |
| 20260903033008 | 69 | 341 | 3.0 | 5.0 | 0.00 | 0.00 | 0.00 | 55 | 1020.0 |
| 20260903032906 | 69 | 341 | 3.0 | 5.0 | 0.00 | 0.00 | 0.00 | 55 | 1019.9 |
| 20260903032804 | 69 | 344 | 3.0 | 5.0 | 0.00 | 0.00 | 0.00 | 55 | 1019.9 |
| 20260903032700 | 69 | 340 | 3.0 | 5.0 | 0.00 | 0.00 | 0.00 | 55 | 1019.9 |
| 20260903032621 | 69 | 329 | 3.0 | 5.0 | 0.00 | 0.00 | 0.00 | 55 | 1019.9 |
| 20260903032601 | 69 | 335 | 3.0 | 5.0 | 0.00 | 0.00 | 0.00 | 55 | 1019.9 |
| 20260903032500 | 69 | 349 | 3.0 | 5.0 | 0.00 | 0.00 | 0.00 | 54 | 1019.9 |
| 20260903032417 | 69 | 5 | 3.0 | 5.0 | 0.00 | 0.00 | 0.00 | 54 | 1019.9 |
| 20260903032305 | 69 | 5 | 2.0 | 4.0 | 0.00 | 0.00 | 0.00 | 53 | 1019.9 |
| 20260903031952 | 70 | 346 | 2.0 | 4.0 | 0.00 | 0.00 | 0.00 | 52 | 1020.0 |
| 20260903031859 | 70 | 355 | 2.0 | 5.0 | 0.00 | 0.00 | 0.00 | 52 | 1020.0 |
| 20260903031646 | 70 | 338 | 2.0 | 5.0 | 0.00 | 0.00 | 0.00 | 51 | 1020.0 |
| 20260903031609 | 70 | 338 | 2.0 | 5.0 | 0.00 | 0.00 | 0.00 | 51 | 1020.0 |
| 20260903031546 | 70 | 338 | 2.0 | 5.0 | 0.00 | 0.00 | 0.00 | 51 | 1020.0 |
| 20260903031447 | 70 | 338 | 2.0 | 7.0 | 0.00 | 0.00 | 0.00 | 51 | 1020.0 |
| 20260903031346 | 70 | 16 | 3.0 | 9.0 | 0.00 | 0.00 | 0.00 | 51 | 1020.0 |
| 20260903031246 | 70 | 17 | 3.0 | 9.0 | 0.00 | 0.00 | 0.00 | 51 | 1019.9 |
| 20260903031140 | 70 | 16 | 3.0 | 9.0 | 0.00 | 0.00 | 0.00 | 51 | 1019.9 |
| 20260903031103 | 71 | 30 | 4.0 | 9.0 | 0.00 | 0.00 | 0.00 | 51 | 1019.9 |
| 20260903031041 | 71 | 5 | 4.0 | 9.0 | 0.00 | 0.00 | 0.00 | 51 | 1019.9 |
| 20260903030940 | 71 | 34 | 4.0 | 9.0 | 0.00 | 0.00 | 0.00 | 50 | 1019.9 |
| 20260903030840 | 71 | 31 | 4.0 | 9.0 | 0.00 | 0.00 | 0.00 | 50 | 1019.9 |
| 20260903030740 | 71 | 54 | 5.0 | 9.0 | 0.00 | 0.00 | 0.00 | 50 | 1019.9 |
| 20260903030636 | 71 | 45 | 5.0 | 9.0 | 0.00 | 0.00 | 0.00 | 50 | 1019.8 |
| 20260903030602 | 71 | 42 | 5.0 | 9.0 | 0.00 | 0.00 | 0.00 | 50 | 1019.8 |
| 20260903030534 | 71 | 71 | 5.0 | 9.0 | 0.00 | 0.00 | 0.00 | 50 | 1019.9 |
| 20260903030442 | 71 | 46 | 4.0 | 9.0 | 0.00 | 0.00 | 0.00 | 50 | 1019.9 |
| 20260903030233 | 71 | 49 | 4.0 | 9.0 | 0.00 | 0.00 | 0.00 | 49 | 1019.9 |
| 20260903030128 | 71 | 71 | 4.0 | 9.0 | 0.00 | 0.00 | 0.00 | 49 | 1020.0 |
| 20260903030028 | 71 | 78 | 4.0 | 9.0 | 0.00 | 0.00 | 0.00 | 48 | 1020.0 |
| 20260903025928 | 71 | 96 | 3.0 | 7.0 | 0.00 | 0.00 | 0.00 | 48 | 1020.0 |
| 20260903025828 | 71 | 98 | 4.0 | 7.0 | 0.00 | 0.00 | 0.00 | 48 | 1020.2 |
| 20260903025729 | 71 | 80 | 4.0 | 8.0 | 0.00 | 0.00 | 0.00 | 48 | 1020.2 |
| 20260903025622 | 71 | 96 | 4.0 | 9.0 | 0.00 | 0.00 | 0.00 | 48 | 1020.2 |
| 20260903025559 | 71 | 115 | 4.0 | 9.0 | 0.00 | 0.00 | 0.00 | 48 | 1020.2 |
| 20260903025522 | 71 | 105 | 4.0 | 9.0 | 0.00 | 0.00 | 0.00 | 48 | 1020.2 |
| 20260903025422 | 71 | 102 | 4.0 | 9.0 | 0.00 | 0.00 | 0.00 | 48 | 1020.2 |
| 20260903025322 | 72 | 127 | 4.0 | 9.0 | 0.00 | 0.00 | 0.00 | 48 | 1020.2 |
| 20260903025222 | 72 | 108 | 4.0 | 9.0 | 0.00 | 0.00 | 0.00 | 47 | 1020.0 |
| 20260903025116 | 72 | 56 | 5.0 | 10.0 | 0.00 | 0.00 | 0.00 | 48 | 1020.2 |
| 20260903025058 | 72 | 53 | 5.0 | 10.0 | 0.00 | 0.00 | 0.00 | 48 | 1020.2 |
| 20260903025023 | 72 | 53 | 5.0 | 12.0 | 0.00 | 0.00 | 0.00 | 47 | 1020.0 |
| 20260903024815 | 72 | 46 | 7.0 | 14.0 | 0.00 | 0.00 | 0.00 | 48 | 1019.9 |
| 20260903024714 | 73 | 30 | 7.0 | 14.0 | 0.00 | 0.00 | 0.00 | 47 | 1019.9 |
| 20260903024626 | 73 | 39 | 7.0 | 14.0 | 0.00 | 0.00 | 0.00 | 47 | 1019.9 |
| 20260903024620 | 73 | 27 | 7.0 | 14.0 | 0.00 | 0.00 | 0.00 | 47 | 1019.9 |
| 20260903024316 | 73 | 336 | 8.0 | 14.0 | 0.00 | 0.00 | 0.00 | 46 | 1019.8 |
| 20260903024108 | 73 | 309 | 7.0 | 14.0 | 0.00 | 0.00 | 0.00 | 46 | 1019.9 |
| 20260903024055 | 73 | 294 | 7.0 | 14.0 | 0.00 | 0.00 | 0.00 | 46 | 1019.9 |
| 20260903024007 | 74 | 340 | 6.0 | 14.0 | 0.00 | 0.00 | 0.00 | 45 | 1019.9 |
| 20260903023907 | 74 | 309 | 5.0 | 14.0 | 0.00 | 0.00 | 0.00 | 45 | 1019.9 |
| 20260903023814 | 74 | 310 | 4.0 | 14.0 | 0.00 | 0.00 | 0.00 | 45 | 1019.9 |
| 20260903023604 | 74 | 318 | 4.0 | 11.0 | 0.00 | 0.00 | 0.00 | 45 | 1019.9 |
| 20260903023554 | 74 | 321 | 4.0 | 11.0 | 0.00 | 0.00 | 0.00 | 45 | 1019.9 |
| 20260903023504 | 74 | 347 | 4.0 | 8.0 | 0.00 | 0.00 | 0.00 | 44 | 1019.9 |
| 20260903023404 | 74 | 342 | 3.0 | 8.0 | 0.00 | 0.00 | 0.00 | 44 | 1019.9 |
| 20260903023305 | 74 | 326 | 3.0 | 8.0 | 0.00 | 0.00 | 0.00 | 44 | 1020.0 |
| 20260903023204 | 74 | 351 | 3.0 | 8.0 | 0.00 | 0.00 | 0.00 | 44 | 1020.0 |
| 20260903023104 | 74 | 334 | 3.0 | 7.0 | 0.00 | 0.00 | 0.00 | 43 | 1020.0 |
| 20260903023055 | 74 | 334 | 3.0 | 7.0 | 0.00 | 0.00 | 0.00 | 43 | 1020.0 |
| 20260903023002 | 74 | 341 | 2.0 | 7.0 | 0.00 | 0.00 | 0.00 | 43 | 1020.0 |
| 20260903022903 | 74 | 293 | 2.0 | 7.0 | 0.00 | 0.00 | 0.00 | 43 | 1020.0 |
| 20260903022802 | 74 | 293 | 2.0 | 7.0 | 0.00 | 0.00 | 0.00 | 43 | 1019.9 |
| 20260903022702 | 74 | 293 | 2.0 | 7.0 | 0.00 | 0.00 | 0.00 | 43 | 1019.9 |
| 20260903022603 | 74 | 336 | 2.0 | 7.0 | 0.00 | 0.00 | 0.00 | 42 | 1019.9 |
| 20260903022553 | 74 | 324 | 2.0 | 7.0 | 0.00 | 0.00 | 0.00 | 42 | 1019.9 |
| 20260903022502 | 74 | 355 | 3.0 | 11.0 | 0.00 | 0.00 | 0.00 | 43 | 1019.8 |
| 20260903022358 | 74 | 355 | 3.0 | 11.0 | 0.00 | 0.00 | 0.00 | 41 | 1019.8 |
| 20260903022256 | 74 | 355 | 4.0 | 11.0 | 0.00 | 0.00 | 0.00 | 42 | 1019.6 |
| 20260903022154 | 74 | 355 | 4.0 | 11.0 | 0.00 | 0.00 | 0.00 | 42 | 1019.4 |
| 20260903022055 | 74 | 346 | 4.0 | 11.0 | 0.00 | 0.00 | 0.00 | 41 | 1019.3 |
| 20260903021957 | 74 | 345 | 4.0 | 11.0 | 0.00 | 0.00 | 0.00 | 41 | 1019.2 |
| 20260903021755 | 74 | 13 | 4.0 | 11.0 | 0.00 | 0.00 | 0.00 | 41 | 1019.0 |
| 20260903021559 | 74 | 0 | 5.0 | 11.0 | 0.00 | 0.00 | 0.00 | 41 | 1019.0 |
| 20260903021555 | 74 | 340 | 5.0 | 11.0 | 0.00 | 0.00 | 0.00 | 41 | 1019.0 |
| 20260903021348 | 74 | 44 | 4.0 | 9.0 | 0.00 | 0.00 | 0.00 | 41 | 1019.0 |
| 20260903021248 | 74 | 55 | 4.0 | 9.0 | 0.00 | 0.00 | 0.00 | 41 | 1019.0 |
| 20260903021148 | 74 | 24 | 3.0 | 9.0 | 0.00 | 0.00 | 0.00 | 41 | 1019.1 |
| 20260903021052 | 74 | 14 | 3.0 | 9.0 | 0.00 | 0.00 | 0.00 | 41 | 1019.1 |
| 20260903021048 | 74 | 355 | 3.0 | 9.0 | 0.00 | 0.00 | 0.00 | 41 | 1019.1 |
| 20260903020948 | 74 | 26 | 3.0 | 7.0 | 0.00 | 0.00 | 0.00 | 41 | 1019.0 |
| 20260903020848 | 74 | 5 | 3.0 | 8.0 | 0.00 | 0.00 | 0.00 | 41 | 1019.0 |
| 20260903020749 | 75 | 355 | 4.0 | 8.0 | 0.00 | 0.00 | 0.00 | 41 | 1019.0 |
| 20260903020648 | 75 | 330 | 4.0 | 9.0 | 0.00 | 0.00 | 0.00 | 41 | 1019.0 |
| 20260903020548 | 75 | 5 | 4.0 | 9.0 | 0.00 | 0.00 | 0.00 | 41 | 1018.8 |
| 20260903020449 | 75 | 349 | 4.0 | 11.0 | 0.00 | 0.00 | 0.00 | 41 | 1018.8 |
| 20260903020346 | 75 | 355 | 5.0 | 11.0 | 0.00 | 0.00 | 0.00 | 40 | 1018.8 |
| 20260903020245 | 75 | 13 | 5.0 | 11.0 | 0.00 | 0.00 | 0.00 | 40 | 1018.8 |
| 20260903020156 | 75 | 22 | 5.0 | 11.0 | 0.00 | 0.00 | 0.00 | 40 | 1018.7 |
| 20260903020149 | 75 | 327 | 6.0 | 11.0 | 0.00 | 0.00 | 0.00 | 40 | 1018.7 |
| 20260903015944 | 75 | 0 | 6.0 | 11.0 | 0.00 | 0.00 | 0.00 | 39 | 1018.8 |
| 20260903015844 | 75 | 47 | 6.0 | 11.0 | 0.00 | 0.00 | 0.00 | 39 | 1018.7 |
| 20260903015744 | 75 | 47 | 5.0 | 11.0 | 0.00 | 0.00 | 0.00 | 39 | 1018.7 |
| 20260903015642 | 75 | 40 | 5.0 | 11.0 | 0.00 | 0.00 | 0.00 | 39 | 1018.7 |
| 20260903015547 | 75 | 62 | 5.0 | 11.0 | 0.00 | 0.00 | 0.00 | 39 | 1018.7 |
| 20260903015542 | 75 | 42 | 5.0 | 11.0 | 0.00 | 0.00 | 0.00 | 39 | 1018.7 |
| 20260903015449 | 75 | 44 | 5.0 | 11.0 | 0.00 | 0.00 | 0.00 | 39 | 1018.6 |
| 20260903015241 | 75 | 80 | 5.0 | 11.0 | 0.00 | 0.00 | 0.00 | 38 | 1018.6 |
| 20260903015142 | 75 | 38 | 5.0 | 11.0 | 0.00 | 0.00 | 0.00 | 39 | 1018.6 |
| 20260903015047 | 76 | 5 | 5.0 | 11.0 | 0.00 | 0.00 | 0.00 | 38 | 1018.6 |
| 20260903015043 | 76 | 27 | 5.0 | 11.0 | 0.00 | 0.00 | 0.00 | 38 | 1018.7 |
| 20260903014942 | 76 | 340 | 6.0 | 11.0 | 0.00 | 0.00 | 0.00 | 38 | 1018.7 |
| 20260903014842 | 76 | 51 | 6.0 | 11.0 | 0.00 | 0.00 | 0.00 | 38 | 1018.6 |
| 20260903014740 | 76 | 14 | 6.0 | 11.0 | 0.00 | 0.00 | 0.00 | 38 | 1018.6 |
| 20260903014640 | 76 | 13 | 6.0 | 11.0 | 0.00 | 0.00 | 0.00 | 38 | 1018.7 |
| 20260903014547 | 76 | 333 | 6.0 | 11.0 | 0.00 | 0.00 | 0.00 | 38 | 1018.7 |
| 20260903014540 | 76 | 333 | 6.0 | 11.0 | 0.00 | 0.00 | 0.00 | 38 | 1018.6 |
| 20260903014440 | 76 | 311 | 6.0 | 11.0 | 0.00 | 0.00 | 0.00 | 38 | 1018.6 |
| 20260903014340 | 76 | 329 | 6.0 | 11.0 | 0.00 | 0.00 | 0.00 | 38 | 1018.6 |
| 20260903014240 | 76 | 341 | 7.0 | 11.0 | 0.00 | 0.00 | 0.00 | 38 | 1018.6 |
| 20260903014159 | 76 | 30 | 7.0 | 12.0 | 0.00 | 0.00 | 0.00 | 38 | 1018.7 |
| 20260903014152 | 76 | 30 | 6.0 | 12.0 | 0.00 | 0.00 | 0.00 | 37 | 1018.7 |
| 20260903013734 | 76 | 40 | 5.0 | 12.0 | 0.00 | 0.00 | 0.00 | 36 | 1018.7 |
| 20260903013644 | 76 | 21 | 5.0 | 12.0 | 0.00 | 0.00 | 0.00 | 37 | 1018.6 |
| 20260903013638 | 76 | 24 | 5.0 | 12.0 | 0.00 | 0.00 | 0.00 | 36 | 1018.6 |
| 20260903013434 | 76 | 45 | 5.0 | 12.0 | 0.00 | 0.00 | 0.00 | 36 | 1018.6 |
| 20260903013334 | 76 | 40 | 5.0 | 12.0 | 0.00 | 0.00 | 0.00 | 37 | 1018.5 |
| 20260903013234 | 76 | 11 | 4.0 | 12.0 | 0.00 | 0.00 | 0.00 | 36 | 1018.5 |
| 20260903013134 | 76 | 23 | 4.0 | 10.0 | 0.00 | 0.00 | 0.00 | 36 | 1018.5 |
| 20260903013047 | 76 | 355 | 4.0 | 10.0 | 0.00 | 0.00 | 0.00 | 36 | 1018.5 |
| 20260903013034 | 76 | 38 | 4.0 | 10.0 | 0.00 | 0.00 | 0.00 | 36 | 1018.4 |
| 20260903012934 | 76 | 17 | 4.0 | 10.0 | 0.00 | 0.00 | 0.00 | 36 | 1018.4 |
| 20260903012835 | 76 | 342 | 4.0 | 10.0 | 0.00 | 0.00 | 0.00 | 37 | 1018.4 |
| 20260903012752 | 76 | 346 | 4.0 | 10.0 | 0.00 | 0.00 | 0.00 | 37 | 1018.4 |
| 20260903012745 | 76 | 355 | 4.0 | 9.0 | 0.00 | 0.00 | 0.00 | 37 | 1018.4 |
| 20260903012440 | 76 | 345 | 4.0 | 9.0 | 0.00 | 0.00 | 0.00 | 36 | 1018.4 |
| 20260903012239 | 76 | 15 | 4.0 | 9.0 | 0.00 | 0.00 | 0.00 | 36 | 1018.4 |
| 20260903012046 | 76 | 32 | 4.0 | 9.0 | 0.00 | 0.00 | 0.00 | 36 | 1018.4 |
| 20260903012032 | 76 | 34 | 4.0 | 9.0 | 0.00 | 0.00 | 0.00 | 36 | 1018.4 |
| 20260903011932 | 76 | 0 | 4.0 | 9.0 | 0.00 | 0.00 | 0.00 | 36 | 1018.4 |
| 20260903011832 | 76 | 355 | 4.0 | 9.0 | 0.00 | 0.00 | 0.00 | 36 | 1018.4 |
| 20260903011732 | 76 | 335 | 4.0 | 9.0 | 0.00 | 0.00 | 0.00 | 36 | 1018.4 |
| 20260903011632 | 77 | 9 | 4.0 | 9.0 | 0.00 | 0.00 | 0.00 | 36 | 1018.4 |
| 20260903011546 | 77 | 324 | 4.0 | 9.0 | 0.00 | 0.00 | 0.00 | 35 | 1018.4 |
| 20260903011532 | 77 | 5 | 4.0 | 9.0 | 0.00 | 0.00 | 0.00 | 35 | 1018.4 |
| 20260903011438 | 77 | 343 | 4.0 | 9.0 | 0.00 | 0.00 | 0.00 | 36 | 1018.4 |
| 20260903011232 | 77 | 349 | 5.0 | 11.0 | 0.00 | 0.00 | 0.00 | 35 | 1018.5 |
| 20260903011132 | 77 | 5 | 5.0 | 11.0 | 0.00 | 0.00 | 0.00 | 35 | 1018.4 |
| 20260903011046 | 77 | 0 | 5.0 | 11.0 | 0.00 | 0.00 | 0.00 | 35 | 1018.4 |
| 20260903011032 | 77 | 348 | 6.0 | 11.0 | 0.00 | 0.00 | 0.00 | 35 | 1018.4 |
| 20260903010932 | 77 | 5 | 6.0 | 11.0 | 0.00 | 0.00 | 0.00 | 36 | 1018.4 |
| 20260903010832 | 77 | 13 | 6.0 | 11.0 | 0.00 | 0.00 | 0.00 | 35 | 1018.4 |
| 20260903010739 | 77 | 317 | 6.0 | 11.0 | 0.00 | 0.00 | 0.00 | 35 | 1018.4 |
| 20260903010547 | 78 | 355 | 6.0 | 11.0 | 0.00 | 0.00 | 0.00 | 35 | 1018.4 |
| 20260903010533 | 78 | 309 | 6.0 | 11.0 | 0.00 | 0.00 | 0.00 | 34 | 1018.4 |
| 20260903010432 | 78 | 12 | 6.0 | 11.0 | 0.00 | 0.00 | 0.00 | 35 | 1018.4 |
| 20260903010332 | 78 | 332 | 6.0 | 11.0 | 0.00 | 0.00 | 0.00 | 34 | 1018.4 |
| 20260903010233 | 78 | 11 | 6.0 | 11.0 | 0.00 | 0.00 | 0.00 | 34 | 1018.4 |
| 20260903010132 | 78 | 342 | 5.0 | 11.0 | 0.00 | 0.00 | 0.00 | 34 | 1018.4 |
| 20260903010048 | 78 | 331 | 5.0 | 11.0 | 0.00 | 0.00 | 0.00 | 34 | 1018.4 |
| 20260903010032 | 78 | 348 | 5.0 | 11.0 | 0.00 | 0.00 | 0.00 | 34 | 1018.4 |
| 20260903005932 | 78 | 30 | 5.0 | 11.0 | 0.00 | 0.00 | 0.00 | 34 | 1018.3 |
| 20260903005831 | 78 | 346 | 5.0 | 11.0 | 0.00 | 0.00 | 0.00 | 34 | 1018.4 |
| 20260903005732 | 78 | 26 | 6.0 | 11.0 | 0.00 | 0.00 | 0.00 | 34 | 1018.4 |
| 20260903005632 | 78 | 5 | 6.0 | 11.0 | 0.00 | 0.00 | 0.00 | 34 | 1018.3 |
| 20260903005548 | 78 | 11 | 6.0 | 11.0 | 0.00 | 0.00 | 0.00 | 33 | 1018.3 |
| 20260903005532 | 78 | 355 | 6.0 | 11.0 | 0.00 | 0.00 | 0.00 | 33 | 1018.3 |
| 20260903005438 | 78 | 346 | 6.0 | 11.0 | 0.00 | 0.00 | 0.00 | 33 | 1018.3 |
| 20260903005232 | 79 | 328 | 6.0 | 12.0 | 0.00 | 0.00 | 0.00 | 33 | 1018.1 |
| 20260903005132 | 79 | 340 | 6.0 | 12.0 | 0.00 | 0.00 | 0.00 | 33 | 1018.1 |
| 20260903005047 | 79 | 9 | 6.0 | 12.0 | 0.00 | 0.00 | 0.00 | 32 | 1018.1 |
| 20260903005032 | 79 | 355 | 7.0 | 14.0 | 0.00 | 0.00 | 0.00 | 32 | 1018.1 |
| 20260903004930 | 79 | 298 | 7.0 | 14.0 | 0.00 | 0.00 | 0.00 | 32 | 1018.3 |
| 20260903004830 | 79 | 331 | 7.0 | 14.0 | 0.00 | 0.00 | 0.00 | 32 | 1018.1 |
| 20260903004730 | 79 | 324 | 7.0 | 14.0 | 0.00 | 0.00 | 0.00 | 32 | 1018.3 |
| 20260903004629 | 79 | 350 | 6.0 | 14.0 | 0.00 | 0.00 | 0.00 | 32 | 1018.3 |
| 20260903004545 | 79 | 295 | 6.0 | 14.0 | 0.00 | 0.00 | 0.00 | 32 | 1018.3 |
| 20260903004531 | 79 | 319 | 7.0 | 14.0 | 0.00 | 0.00 | 0.00 | 32 | 1018.3 |
| 20260903004430 | 79 | 278 | 6.0 | 14.0 | 0.00 | 0.00 | 0.00 | 32 | 1018.3 |
| 20260903004329 | 79 | 331 | 6.0 | 14.0 | 0.00 | 0.00 | 0.00 | 32 | 1018.3 |
| 20260903004258 | 79 | 313 | 6.0 | 14.0 | 0.00 | 0.00 | 0.00 | 32 | 1018.3 |
| 20260903004029 | 80 | 13 | 6.0 | 14.0 | 0.00 | 0.00 | 0.00 | 32 | 1018.3 |
| 20260903003937 | 80 | 355 | 6.0 | 13.0 | 0.00 | 0.00 | 0.00 | 32 | 1018.3 |
| 20260903003730 | 80 | 317 | 5.0 | 12.0 | 0.00 | 0.00 | 0.00 | 31 | 1018.3 |
| 20260903003630 | 80 | 5 | 5.0 | 12.0 | 0.00 | 0.00 | 0.00 | 31 | 1018.1 |
| 20260903003545 | 80 | 323 | 5.0 | 12.0 | 0.00 | 0.00 | 0.00 | 31 | 1018.1 |
| 20260903003529 | 80 | 0 | 6.0 | 12.0 | 0.00 | 0.00 | 0.00 | 31 | 1018.3 |
| 20260903003430 | 80 | 355 | 6.0 | 12.0 | 0.00 | 0.00 | 0.00 | 31 | 1018.1 |
| 20260903003330 | 80 | 298 | 6.0 | 12.0 | 0.00 | 0.00 | 0.00 | 31 | 1018.0 |
| 20260903003226 | 80 | 294 | 7.0 | 12.0 | 0.00 | 0.00 | 0.00 | 30 | 1018.0 |
| 20260903003126 | 80 | 320 | 7.0 | 12.0 | 0.00 | 0.00 | 0.00 | 30 | 1018.0 |
| 20260903003044 | 80 | 310 | 7.0 | 12.0 | 0.00 | 0.00 | 0.00 | 30 | 1018.0 |
| 20260903003026 | 81 | 321 | 7.0 | 12.0 | 0.00 | 0.00 | 0.00 | 30 | 1018.0 |
| 20260903002926 | 81 | 306 | 8.0 | 12.0 | 0.00 | 0.00 | 0.00 | 30 | 1018.0 |
| 20260903002826 | 81 | 313 | 8.0 | 12.0 | 0.00 | 0.00 | 0.00 | 30 | 1018.1 |
| 20260903002733 | 81 | 302 | 8.0 | 12.0 | 0.00 | 0.00 | 0.00 | 30 | 1018.0 |
| 20260903002545 | 81 | 309 | 8.0 | 14.0 | 0.00 | 0.00 | 0.00 | 30 | 1018.1 |
| 20260903002525 | 81 | 290 | 8.0 | 14.0 | 0.00 | 0.00 | 0.00 | 31 | 1018.1 |
| 20260903002426 | 81 | 315 | 8.0 | 14.0 | 0.00 | 0.00 | 0.00 | 31 | 1018.1 |
| 20260903002339 | 81 | 304 | 8.0 | 14.0 | 0.00 | 0.00 | 0.00 | 31 | 1018.1 |
| 20260903002045 | 81 | 315 | 7.0 | 14.0 | 0.00 | 0.00 | 0.00 | 30 | 1018.1 |
| 20260903002026 | 81 | 300 | 7.0 | 14.0 | 0.00 | 0.00 | 0.00 | 30 | 1018.1 |
| 20260903001925 | 81 | 322 | 7.0 | 14.0 | 0.00 | 0.00 | 0.00 | 30 | 1018.1 |
| 20260903001826 | 81 | 301 | 7.0 | 14.0 | 0.00 | 0.00 | 0.00 | 30 | 1018.1 |
| 20260903001733 | 81 | 308 | 7.0 | 14.0 | 0.00 | 0.00 | 0.00 | 30 | 1018.1 |
| 20260903001545 | 81 | 271 | 7.0 | 10.0 | 0.00 | 0.00 | 0.00 | 31 | 1018.1 |
| 20260903001526 | 81 | 281 | 7.0 | 10.0 | 0.00 | 0.00 | 0.00 | 31 | 1018.3 |
| 20260903001426 | 81 | 297 | 7.0 | 13.0 | 0.00 | 0.00 | 0.00 | 31 | 1018.3 |
| 20260903001322 | 81 | 289 | 7.0 | 15.0 | 0.00 | 0.00 | 0.00 | 31 | 1018.3 |
| 20260903001222 | 81 | 319 | 7.0 | 15.0 | 0.00 | 0.00 | 0.00 | 31 | 1018.1 |
| 20260903001122 | 82 | 314 | 8.0 | 15.0 | 0.00 | 0.00 | 0.00 | 30 | 1018.3 |
| 20260903001045 | 82 | 272 | 8.0 | 15.0 | 0.00 | 0.00 | 0.00 | 30 | 1018.3 |
| 20260903001022 | 82 | 320 | 8.0 | 15.0 | 0.00 | 0.00 | 0.00 | 30 | 1018.1 |
| 20260903000930 | 82 | 283 | 8.0 | 15.0 | 0.00 | 0.00 | 0.00 | 30 | 1018.1 |
| 20260903000758 | 82 | 319 | 9.0 | 15.0 | 0.00 | 0.00 | 0.00 | 30 | 1018.1 |
| 20260903000523 | 82 | 268 | 9.0 | 15.0 | 0.00 | 0.00 | 0.00 | 29 | 1018.1 |
| 20260903000424 | 82 | 279 | 9.0 | 15.0 | 0.00 | 0.00 | 0.00 | 29 | 1018.1 |
| 20260903000325 | 82 | 259 | 8.0 | 15.0 | 0.00 | 0.00 | 0.00 | 29 | 1018.0 |
| 20260903000229 | 82 | 294 | 8.0 | 18.0 | 0.00 | 0.00 | 0.00 | 29 | 1018.0 |
| 20260903000041 | 82 | 291 | 8.0 | 18.0 | 0.00 | 0.00 | 0.00 | 29 | 1018.0 |
| 20260903000036 | 82 | 257 | 8.0 | 18.0 | 0.00 | 0.00 | 0.00 | 29 | 1018.0 |
| 20260902235721 | 83 | 298 | 8.0 | 18.0 | 0.00 | 0.00 | 0.00 | 29 | 1018.1 |
| 20260902235636 | 83 | 280 | 9.0 | 18.0 | 0.00 | 0.00 | 0.00 | 29 | 1018.0 |
| 20260902235630 | 83 | 306 | 9.0 | 18.0 | 0.00 | 0.00 | 0.00 | 29 | 1018.0 |
| 20260902235318 | 83 | 254 | 9.0 | 18.0 | 0.00 | 0.00 | 0.00 | 29 | 1018.0 |
| 20260902235218 | 83 | 279 | 10.0 | 18.0 | 0.00 | 0.00 | 0.00 | 28 | 1018.0 |
| 20260902235117 | 83 | 269 | 9.0 | 18.0 | 0.00 | 0.00 | 0.00 | 28 | 1018.0 |
| 20260902235041 | 83 | 250 | 9.0 | 18.0 | 0.00 | 0.00 | 0.00 | 28 | 1018.0 |
| 20260902235018 | 83 | 288 | 10.0 | 18.0 | 0.00 | 0.00 | 0.00 | 28 | 1018.0 |
| 20260902234918 | 83 | 279 | 10.0 | 18.0 | 0.00 | 0.00 | 0.00 | 28 | 1018.0 |
| 20260902234818 | 83 | 293 | 10.0 | 18.0 | 0.00 | 0.00 | 0.00 | 28 | 1018.1 |
| 20260902234718 | 83 | 257 | 10.0 | 18.0 | 0.00 | 0.00 | 0.00 | 28 | 1018.0 |
| 20260902234647 | 83 | 316 | 10.0 | 18.0 | 0.00 | 0.00 | 0.00 | 27 | 1018.0 |
| 20260902234518 | 83 | 270 | 9.0 | 18.0 | 0.00 | 0.00 | 0.00 | 27 | 1018.0 |
| 20260902234417 | 83 | 309 | 9.0 | 18.0 | 0.00 | 0.00 | 0.00 | 27 | 1018.0 |
| 20260902234318 | 84 | 280 | 9.0 | 18.0 | 0.00 | 0.00 | 0.00 | 27 | 1018.0 |
| 20260902234218 | 84 | 298 | 9.0 | 18.0 | 0.00 | 0.00 | 0.00 | 27 | 1018.0 |
| 20260902234117 | 84 | 309 | 9.0 | 18.0 | 0.00 | 0.00 | 0.00 | 27 | 1018.1 |
| 20260902234040 | 84 | 300 | 9.0 | 18.0 | 0.00 | 0.00 | 0.00 | 27 | 1018.1 |
| 20260902234025 | 84 | 325 | 9.0 | 18.0 | 0.00 | 0.00 | 0.00 | 27 | 1018.1 |
| 20260902233818 | 84 | 273 | 9.0 | 18.0 | 0.00 | 0.00 | 0.00 | 27 | 1018.3 |
| 20260902233717 | 84 | 286 | 9.0 | 18.0 | 0.00 | 0.00 | 0.00 | 27 | 1018.3 |
| 20260902233618 | 84 | 304 | 9.0 | 18.0 | 0.00 | 0.00 | 0.00 | 28 | 1018.3 |
| 20260902233541 | 84 | 326 | 9.0 | 18.0 | 0.00 | 0.00 | 0.00 | 27 | 1018.3 |
| 20260902233514 | 84 | 0 | 9.0 | 18.0 | 0.00 | 0.00 | 0.00 | 28 | 1018.3 |
| 20260902233413 | 84 | 300 | 9.0 | 18.0 | 0.00 | 0.00 | 0.00 | 27 | 1018.3 |
| 20260902233314 | 84 | 290 | 9.0 | 18.0 | 0.00 | 0.00 | 0.00 | 27 | 1018.3 |
| 20260902233232 | 84 | 288 | 9.0 | 17.0 | 0.00 | 0.00 | 0.00 | 27 | 1018.3 |
| 20260902233120 | 84 | 317 | 9.0 | 17.0 | 0.00 | 0.00 | 0.00 | 26 | 1018.3 |
| 20260902232914 | 84 | 298 | 8.0 | 17.0 | 0.00 | 0.00 | 0.00 | 27 | 1018.3 |
| 20260902232814 | 84 | 302 | 8.0 | 17.0 | 0.00 | 0.00 | 0.00 | 27 | 1018.3 |
| 20260902232713 | 84 | 302 | 8.0 | 17.0 | 0.00 | 0.00 | 0.00 | 26 | 1018.3 |
| 20260902232614 | 84 | 310 | 8.0 | 16.0 | 0.00 | 0.00 | 0.00 | 27 | 1018.3 |
| 20260902232540 | 84 | 304 | 8.0 | 14.0 | 0.00 | 0.00 | 0.00 | 28 | 1018.3 |
| 20260902232514 | 84 | 304 | 8.0 | 18.0 | 0.00 | 0.00 | 0.00 | 28 | 1018.3 |
| 20260902232414 | 83 | 307 | 8.0 | 18.0 | 0.00 | 0.00 | 0.00 | 28 | 1018.3 |
| 20260902232314 | 83 | 288 | 9.0 | 18.0 | 0.00 | 0.00 | 0.00 | 28 | 1018.3 |
| 20260902232214 | 83 | 291 | 9.0 | 18.0 | 0.00 | 0.00 | 0.00 | 28 | 1018.3 |
| 20260902232114 | 83 | 301 | 9.0 | 18.0 | 0.00 | 0.00 | 0.00 | 28 | 1018.3 |
| 20260902232040 | 83 | 296 | 10.0 | 18.0 | 0.00 | 0.00 | 0.00 | 28 | 1018.3 |
| 20260902232014 | 83 | 259 | 10.0 | 18.0 | 0.00 | 0.00 | 0.00 | 28 | 1018.3 |
| 20260902231913 | 83 | 265 | 10.0 | 18.0 | 0.00 | 0.00 | 0.00 | 28 | 1018.3 |
| 20260902231814 | 83 | 292 | 10.0 | 18.0 | 0.00 | 0.00 | 0.00 | 28 | 1018.3 |
| 20260902231714 | 83 | 287 | 10.0 | 18.0 | 0.00 | 0.00 | 0.00 | 28 | 1018.3 |
| 20260902231610 | 83 | 323 | 10.0 | 18.0 | 0.00 | 0.00 | 0.00 | 28 | 1018.3 |
| 20260902231540 | 82 | 286 | 10.0 | 20.0 | 0.00 | 0.00 | 0.00 | 28 | 1018.3 |
| 20260902231511 | 82 | 300 | 10.0 | 20.0 | 0.00 | 0.00 | 0.00 | 29 | 1018.3 |
| 20260902231410 | 82 | 314 | 11.0 | 20.0 | 0.00 | 0.00 | 0.00 | 28 | 1018.4 |
| 20260902231317 | 82 | 272 | 11.0 | 20.0 | 0.00 | 0.00 | 0.00 | 28 | 1018.4 |
| 20260902231110 | 82 | 329 | 11.0 | 22.0 | 0.00 | 0.00 | 0.00 | 29 | 1018.4 |
| 20260902231041 | 82 | 316 | 11.0 | 22.0 | 0.00 | 0.00 | 0.00 | 29 | 1018.4 |
| 20260902231010 | 82 | 292 | 12.0 | 22.0 | 0.00 | 0.00 | 0.00 | 29 | 1018.3 |
| 20260902230909 | 82 | 287 | 12.0 | 22.0 | 0.00 | 0.00 | 0.00 | 29 | 1018.4 |
| 20260902230810 | 82 | 290 | 13.0 | 22.0 | 0.00 | 0.00 | 0.00 | 29 | 1018.4 |
| 20260902230711 | 82 | 268 | 13.0 | 26.0 | 0.00 | 0.00 | 0.00 | 28 | 1018.4 |
| 20260902230628 | 82 | 258 | 12.0 | 26.0 | 0.00 | 0.00 | 0.00 | 30 | 1018.3 |
| 20260902230622 | 82 | 327 | 12.0 | 26.0 | 0.00 | 0.00 | 0.00 | 30 | 1018.3 |
| 20260902230310 | 82 | 286 | 13.0 | 26.0 | 0.00 | 0.00 | 0.00 | 29 | 1018.4 |
| 20260902230210 | 82 | 277 | 12.0 | 26.0 | 0.00 | 0.00 | 0.00 | 29 | 1018.4 |
| 20260902230110 | 83 | 298 | 12.0 | 26.0 | 0.00 | 0.00 | 0.00 | 29 | 1018.4 |
| 20260902230040 | 83 | 309 | 12.0 | 26.0 | 0.00 | 0.00 | 0.00 | 29 | 1018.4 |
| 20260902230010 | 83 | 291 | 11.0 | 26.0 | 0.00 | 0.00 | 0.00 | 28 | 1018.4 |
| 20260902225917 | 83 | 293 | 11.0 | 26.0 | 0.00 | 0.00 | 0.00 | 28 | 1018.4 |
| 20260902225705 | 83 | 298 | 9.0 | 18.0 | 0.00 | 0.00 | 0.00 | 27 | 1018.5 |
| 20260902225607 | 83 | 286 | 8.0 | 18.0 | 0.00 | 0.00 | 0.00 | 26 | 1018.4 |
| 20260902225540 | 83 | 309 | 8.0 | 18.0 | 0.00 | 0.00 | 0.00 | 26 | 1018.4 |
| 20260902225506 | 83 | 325 | 8.0 | 18.0 | 0.00 | 0.00 | 0.00 | 27 | 1018.4 |
| 20260902225405 | 83 | 262 | 7.0 | 18.0 | 0.00 | 0.00 | 0.00 | 26 | 1018.4 |
| 20260902225313 | 83 | 346 | 6.0 | 18.0 | 0.00 | 0.00 | 0.00 | 26 | 1018.4 |
| 20260902225106 | 83 | 333 | 6.0 | 11.0 | 0.00 | 0.00 | 0.00 | 26 | 1018.5 |
| 20260902225041 | 83 | 300 | 6.0 | 11.0 | 0.00 | 0.00 | 0.00 | 26 | 1018.5 |
| 20260902225012 | 83 | 221 | 6.0 | 12.0 | 0.00 | 0.00 | 0.00 | 26 | 1018.4 |
| 20260902224806 | 83 | 289 | 6.0 | 12.0 | 0.00 | 0.00 | 0.00 | 26 | 1018.4 |
| 20260902224706 | 83 | 216 | 6.0 | 12.0 | 0.00 | 0.00 | 0.00 | 26 | 1018.4 |
| 20260902224606 | 83 | 300 | 7.0 | 12.0 | 0.00 | 0.00 | 0.00 | 26 | 1018.3 |
| 20260902224540 | 83 | 292 | 7.0 | 12.0 | 0.00 | 0.00 | 0.00 | 26 | 1018.3 |
| 20260902224505 | 84 | 323 | 7.0 | 12.0 | 0.00 | 0.00 | 0.00 | 26 | 1018.3 |
| 20260902224404 | 84 | 279 | 7.0 | 12.0 | 0.00 | 0.00 | 0.00 | 25 | 1018.4 |
| 20260902224310 | 84 | 300 | 7.0 | 12.0 | 0.00 | 0.00 | 0.00 | 26 | 1018.4 |
| 20260902224146 | 84 | 323 | 5.0 | 12.0 | 0.00 | 0.00 | 0.00 | 26 | 1018.4 |
| 20260902224005 | 85 | 265 | 5.0 | 11.0 | 0.00 | 0.00 | 0.00 | 27 | 1018.4 |
| 20260902223902 | 85 | 309 | 4.0 | 10.0 | 0.00 | 0.00 | 0.00 | 28 | 1018.3 |
| 20260902223801 | 85 | 315 | 4.0 | 10.0 | 0.00 | 0.00 | 0.00 | 26 | 1018.4 |
| 20260902223703 | 86 | 314 | 4.0 | 10.0 | 0.00 | 0.00 | 0.00 | 26 | 1018.5 |
| 20260902223603 | 86 | 279 | 4.0 | 10.0 | 0.00 | 0.00 | 0.00 | 28 | 1018.5 |
| 20260902223539 | 86 | 280 | 3.0 | 9.0 | 0.00 | 0.00 | 0.00 | 28 | 1018.5 |
| 20260902223501 | 86 | 260 | 3.0 | 9.0 | 0.00 | 0.00 | 0.00 | 27 | 1018.5 |
| 20260902223401 | 86 | 261 | 3.0 | 9.0 | 0.00 | 0.00 | 0.00 | 25 | 1018.4 |
| 20260902223153 | 86 | 166 | 3.0 | 9.0 | 0.00 | 0.00 | 0.00 | 25 | 1018.4 |
| 20260902223053 | 87 | 191 | 3.0 | 9.0 | 0.00 | 0.00 | 0.00 | 24 | 1018.4 |
| 20260902223037 | 87 | 213 | 3.0 | 9.0 | 0.00 | 0.00 | 0.00 | 24 | 1018.3 |
| 20260902222959 | 87 | 215 | 3.0 | 9.0 | 0.00 | 0.00 | 0.00 | 24 | 1018.3 |
| 20260902222755 | 87 | 173 | 3.0 | 10.0 | 0.00 | 0.00 | 0.00 | 24 | 1018.1 |
| 20260902222549 | 87 | 194 | 3.0 | 10.0 | 0.00 | 0.00 | 0.00 | 24 | 1018.1 |
| 20260902222536 | 87 | 163 | 3.0 | 10.0 | 0.00 | 0.00 | 0.00 | 24 | 1018.1 |
| 20260902222450 | 87 | 178 | 3.0 | 10.0 | 0.00 | 0.00 | 0.00 | 23 | 1018.1 |
| 20260902222346 | 87 | 173 | 3.0 | 10.0 | 0.00 | 0.00 | 0.00 | 23 | 1018.0 |
| 20260902222241 | 87 | 167 | 4.0 | 10.0 | 0.00 | 0.00 | 0.00 | 24 | 1018.0 |
| 20260902222141 | 87 | 167 | 4.0 | 10.0 | 0.00 | 0.00 | 0.00 | 23 | 1018.0 |
| 20260902222052 | 87 | 165 | 4.0 | 10.0 | 0.00 | 0.00 | 0.00 | 23 | 1017.9 |
| 20260902222046 | 87 | 161 | 4.0 | 10.0 | 0.00 | 0.00 | 0.00 | 23 | 1017.9 |
| 20260902221840 | 87 | 92 | 4.0 | 10.0 | 0.00 | 0.00 | 0.00 | 23 | 1017.9 |
| 20260902221735 | 88 | 138 | 4.0 | 8.0 | 0.00 | 0.00 | 0.00 | 23 | 1017.9 |
| 20260902221647 | 88 | 128 | 4.0 | 8.0 | 0.00 | 0.00 | 0.00 | 23 | 1017.9 |
| 20260902221640 | 88 | 127 | 4.0 | 8.0 | 0.00 | 0.00 | 0.00 | 22 | 1017.9 |
| 20260902221435 | 88 | 104 | 4.0 | 8.0 | 0.00 | 0.00 | 0.00 | 22 | 1017.9 |
| 20260902221333 | 88 | 92 | 4.0 | 8.0 | 0.00 | 0.00 | 0.00 | 25 | 1017.9 |
| 20260902221231 | 88 | 145 | 4.0 | 8.0 | 0.00 | 0.00 | 0.00 | 25 | 1017.9 |
| 20260902221131 | 88 | 175 | 4.0 | 11.0 | 0.00 | 0.00 | 0.00 | 22 | 1017.9 |
| 20260902221036 | 88 | 114 | 4.0 | 11.0 | 0.00 | 0.00 | 0.00 | 21 | 1017.9 |
| 20260902221029 | 88 | 125 | 4.0 | 11.0 | 0.00 | 0.00 | 0.00 | 21 | 1017.9 |
| 20260902220929 | 88 | 68 | 5.0 | 11.0 | 0.00 | 0.00 | 0.00 | 22 | 1017.9 |
| 20260902220826 | 88 | 142 | 4.0 | 11.0 | 0.00 | 0.00 | 0.00 | 23 | 1017.9 |
| 20260902220724 | 88 | 82 | 4.0 | 11.0 | 0.00 | 0.00 | 0.00 | 23 | 1017.9 |
| 20260902220536 | 88 | 51 | 4.0 | 11.0 | 0.00 | 0.00 | 0.00 | 22 | 1017.9 |
| 20260902220524 | 88 | 97 | 4.0 | 11.0 | 0.00 | 0.00 | 0.00 | 21 | 1017.9 |
| 20260902220316 | 88 | 98 | 4.0 | 11.0 | 0.00 | 0.00 | 0.00 | 23 | 1017.9 |
| 20260902220211 | 88 | 112 | 3.0 | 11.0 | 0.00 | 0.00 | 0.00 | 24 | 1018.0 |
| 20260902220111 | 88 | 123 | 3.0 | 8.0 | 0.00 | 0.00 | 0.00 | 23 | 1018.0 |
| 20260902220036 | 88 | 92 | 3.0 | 8.0 | 0.00 | 0.00 | 0.00 | 23 | 1018.0 |
| 20260902220011 | 88 | 123 | 3.0 | 7.0 | 0.00 | 0.00 | 0.00 | 22 | 1018.0 |
| 20260902215911 | 88 | 119 | 3.0 | 7.0 | 0.00 | 0.00 | 0.00 | 23 | 1018.0 |
| 20260902215818 | 88 | 96 | 3.0 | 7.0 | 0.00 | 0.00 | 0.00 | 23 | 1018.0 |
| 20260902215608 | 88 | 87 | 4.0 | 9.0 | 0.00 | 0.00 | 0.00 | 21 | 1018.0 |
| 20260902215537 | 88 | 94 | 4.0 | 9.0 | 0.00 | 0.00 | 0.00 | 21 | 1018.1 |
| 20260902215509 | 88 | 97 | 4.0 | 9.0 | 0.00 | 0.00 | 0.00 | 21 | 1018.1 |
| 20260902215408 | 89 | 81 | 4.0 | 9.0 | 0.00 | 0.00 | 0.00 | 21 | 1018.1 |
| 20260902215308 | 89 | 84 | 4.0 | 9.0 | 0.00 | 0.00 | 0.00 | 22 | 1018.3 |
| 20260902215206 | 89 | 85 | 4.0 | 9.0 | 0.00 | 0.00 | 0.00 | 21 | 1018.3 |
| 20260902215141 | 89 | 96 | 4.0 | 9.0 | 0.00 | 0.00 | 0.00 | 24 | 1018.4 |
| 20260902215007 | 89 | 79 | 4.0 | 9.0 | 0.00 | 0.00 | 0.00 | 21 | 1018.3 |
| 20260902214913 | 89 | 90 | 4.0 | 9.0 | 0.00 | 0.00 | 0.00 | 21 | 1018.4 |
| 20260902214707 | 89 | 105 | 3.0 | 9.0 | 0.00 | 0.00 | 0.00 | 23 | 1018.4 |
| 20260902214606 | 88 | 138 | 3.0 | 8.0 | 0.00 | 0.00 | 0.00 | 24 | 1018.4 |
| 20260902214531 | 88 | 106 | 3.0 | 8.0 | 0.00 | 0.00 | 0.00 | 21 | 1018.4 |
| 20260902214506 | 88 | 119 | 3.0 | 8.0 | 0.00 | 0.00 | 0.00 | 21 | 1018.4 |
| 20260902214407 | 88 | 81 | 3.0 | 8.0 | 0.00 | 0.00 | 0.00 | 21 | 1018.4 |
| 20260902214306 | 88 | 128 | 3.0 | 8.0 | 0.00 | 0.00 | 0.00 | 22 | 1018.4 |
| 20260902214204 | 88 | 121 | 3.0 | 8.0 | 0.00 | 0.00 | 0.00 | 22 | 1018.4 |
| 20260902214137 | 88 | 103 | 3.0 | 8.0 | 0.00 | 0.00 | 0.00 | 22 | 1018.4 |
| 20260902214002 | 88 | 103 | 4.0 | 10.0 | 0.00 | 0.00 | 0.00 | 21 | 1018.4 |
| 20260902213900 | 88 | 57 | 4.0 | 10.0 | 0.00 | 0.00 | 0.00 | 22 | 1018.4 |
| 20260902213800 | 88 | 51 | 4.0 | 10.0 | 0.00 | 0.00 | 0.00 | 23 | 1018.5 |
| 20260902213659 | 88 | 111 | 4.0 | 10.0 | 0.00 | 0.00 | 0.00 | 24 | 1018.5 |
| 20260902213637 | 88 | 87 | 4.0 | 10.0 | 0.00 | 0.00 | 0.00 | 22 | 1018.4 |
| 20260902213459 | 88 | 73 | 5.0 | 10.0 | 0.00 | 0.00 | 0.00 | 23 | 1018.4 |
| 20260902213358 | 88 | 57 | 5.0 | 10.0 | 0.00 | 0.00 | 0.00 | 22 | 1018.4 |
| 20260902213259 | 88 | 68 | 5.0 | 10.0 | 0.00 | 0.00 | 0.00 | 22 | 1018.5 |
| 20260902213244 | 88 | 67 | 5.0 | 10.0 | 0.00 | 0.00 | 0.00 | 22 | 1018.5 |
| 20260902212957 | 88 | 103 | 5.0 | 10.0 | 0.00 | 0.00 | 0.00 | 22 | 1018.5 |
| 20260902212855 | 88 | 123 | 5.0 | 10.0 | 0.00 | 0.00 | 0.00 | 23 | 1018.5 |
| 20260902212753 | 88 | 143 | 5.0 | 10.0 | 0.00 | 0.00 | 0.00 | 21 | 1018.5 |
| 20260902212653 | 89 | 118 | 5.0 | 10.0 | 0.00 | 0.00 | 0.00 | 21 | 1018.5 |
| 20260902212553 | 89 | 74 | 5.0 | 10.0 | 0.00 | 0.00 | 0.00 | 22 | 1018.5 |
| 20260902212530 | 89 | 57 | 5.0 | 10.0 | 0.00 | 0.00 | 0.00 | 22 | 1018.6 |
| 20260902212453 | 89 | 98 | 5.0 | 10.0 | 0.00 | 0.00 | 0.00 | 22 | 1018.6 |
| 20260902212351 | 89 | 89 | 5.0 | 10.0 | 0.00 | 0.00 | 0.00 | 23 | 1018.6 |
| 20260902212250 | 89 | 54 | 5.0 | 10.0 | 0.00 | 0.00 | 0.00 | 22 | 1018.6 |
| 20260902212151 | 89 | 158 | 5.0 | 10.0 | 0.00 | 0.00 | 0.00 | 22 | 1018.6 |
| 20260902212136 | 89 | 175 | 5.0 | 11.0 | 0.00 | 0.00 | 0.00 | 22 | 1018.6 |
| 20260902211951 | 89 | 141 | 5.0 | 11.0 | 0.00 | 0.00 | 0.00 | 23 | 1018.6 |
| 20260902211850 | 89 | 136 | 5.0 | 11.0 | 0.00 | 0.00 | 0.00 | 22 | 1018.6 |
| 20260902211745 | 89 | 84 | 5.0 | 11.0 | 0.00 | 0.00 | 0.00 | 21 | 1018.7 |
| 20260902211644 | 89 | 74 | 5.0 | 11.0 | 0.00 | 0.00 | 0.00 | 21 | 1018.7 |
| 20260902211543 | 89 | 90 | 5.0 | 12.0 | 0.00 | 0.00 | 0.00 | 21 | 1018.7 |
| 20260902211523 | 89 | 53 | 6.0 | 16.0 | 0.00 | 0.00 | 0.00 | 21 | 1018.7 |
| 20260902211449 | 89 | 59 | 6.0 | 16.0 | 0.00 | 0.00 | 0.00 | 21 | 1018.7 |
| 20260902211237 | 89 | 88 | 7.0 | 16.0 | 0.00 | 0.00 | 0.00 | 21 | 1018.7 |
| 20260902211201 | 89 | 73 | 6.0 | 16.0 | 0.00 | 0.00 | 0.00 | 22 | 1018.7 |
| 20260902211047 | 89 | 76 | 7.0 | 16.0 | 0.00 | 0.00 | 0.00 | 22 | 1018.6 |
| 20260902210732 | 89 | 96 | 7.0 | 16.0 | 0.00 | 0.00 | 0.00 | 21 | 1018.7 |
| 20260902210633 | 89 | 73 | 6.0 | 16.0 | 0.00 | 0.00 | 0.00 | 21 | 1018.7 |
| 20260902210532 | 89 | 45 | 6.0 | 16.0 | 0.00 | 0.00 | 0.00 | 23 | 1018.8 |
| 20260902210510 | 89 | 49 | 6.0 | 12.0 | 0.00 | 0.00 | 0.00 | 23 | 1018.8 |
| 20260902210431 | 89 | 92 | 6.0 | 12.0 | 0.00 | 0.00 | 0.00 | 21 | 1018.8 |
| 20260902210331 | 89 | 350 | 6.0 | 12.0 | 0.00 | 0.00 | 0.00 | 22 | 1018.8 |
| 20260902210125 | 89 | 71 | 6.0 | 12.0 | 0.00 | 0.00 | 0.00 | 22 | 1018.8 |
| 20260902210025 | 89 | 129 | 7.0 | 12.0 | 0.00 | 0.00 | 0.00 | 25 | 1018.8 |
| 20260902210005 | 89 | 138 | 7.0 | 12.0 | 0.00 | 0.00 | 0.00 | 25 | 1018.8 |
| 20260902205925 | 89 | 115 | 7.0 | 14.0 | 0.00 | 0.00 | 0.00 | 21 | 1019.0 |
| 20260902205824 | 89 | 134 | 7.0 | 14.0 | 0.00 | 0.00 | 0.00 | 21 | 1019.0 |
| 20260902205727 | 89 | 130 | 7.0 | 14.0 | 0.00 | 0.00 | 0.00 | 21 | 1019.0 |
| 20260902205521 | 89 | 161 | 7.0 | 14.0 | 0.00 | 0.00 | 0.00 | 23 | 1018.8 |
| 20260902205457 | 89 | 175 | 7.0 | 14.0 | 0.00 | 0.00 | 0.00 | 23 | 1018.8 |
| 20260902205419 | 89 | 136 | 7.0 | 14.0 | 0.00 | 0.00 | 0.00 | 23 | 1019.0 |
| 20260902205318 | 88 | 139 | 7.0 | 15.0 | 0.00 | 0.00 | 0.00 | 22 | 1019.0 |
| 20260902205213 | 88 | 111 | 7.0 | 15.0 | 0.00 | 0.00 | 0.00 | 23 | 1019.1 |
| 20260902205113 | 88 | 107 | 6.0 | 15.0 | 0.00 | 0.00 | 0.00 | 22 | 1019.0 |
| 20260902205013 | 88 | 165 | 6.0 | 15.0 | 0.00 | 0.00 | 0.00 | 22 | 1019.1 |
| 20260902204951 | 88 | 109 | 6.0 | 15.0 | 0.00 | 0.00 | 0.00 | 22 | 1019.1 |
| 20260902204913 | 88 | 158 | 6.0 | 15.0 | 0.00 | 0.00 | 0.00 | 22 | 1019.0 |
| 20260902204813 | 88 | 121 | 6.0 | 15.0 | 0.00 | 0.00 | 0.00 | 21 | 1019.1 |
| 20260902204707 | 89 | 72 | 6.0 | 15.0 | 0.00 | 0.00 | 0.00 | 23 | 1019.1 |
| 20260902204607 | 89 | 5 | 6.0 | 15.0 | 0.00 | 0.00 | 0.00 | 21 | 1019.1 |
| 20260902204552 | 89 | 24 | 6.0 | 15.0 | 0.00 | 0.00 | 0.00 | 22 | 1019.1 |
| 20260902204411 | 89 | 48 | 5.0 | 15.0 | 0.00 | 0.00 | 0.00 | 26 | 1019.2 |
| 20260902204159 | 89 | 102 | 5.0 | 11.0 | 0.00 | 0.00 | 0.00 | 22 | 1019.2 |
| 20260902204116 | 89 | 65 | 5.0 | 11.0 | 0.00 | 0.00 | 0.00 | 21 | 1019.2 |
| 20260902204110 | 89 | 123 | 5.0 | 11.0 | 0.00 | 0.00 | 0.00 | 22 | 1019.3 |
| 20260902203758 | 89 | 121 | 5.0 | 11.0 | 0.00 | 0.00 | 0.00 | 24 | 1019.3 |
| 20260902203655 | 89 | 18 | 6.0 | 11.0 | 0.00 | 0.00 | 0.00 | 22 | 1019.3 |
| 20260902203555 | 89 | 142 | 6.0 | 11.0 | 0.00 | 0.00 | 0.00 | 23 | 1019.3 |
| 20260902203455 | 89 | 74 | 6.0 | 11.0 | 0.00 | 0.00 | 0.00 | 22 | 1019.3 |
| 20260902203431 | 89 | 73 | 5.0 | 11.0 | 0.00 | 0.00 | 0.00 | 22 | 1019.4 |
| 20260902203355 | 89 | 58 | 5.0 | 11.0 | 0.00 | 0.00 | 0.00 | 22 | 1019.4 |
| 20260902203252 | 89 | 42 | 5.0 | 11.0 | 0.00 | 0.00 | 0.00 | 23 | 1019.4 |
| 20260902203149 | 89 | 96 | 5.0 | 11.0 | 0.00 | 0.00 | 0.00 | 21 | 1019.3 |
| 20260902203046 | 89 | 73 | 4.0 | 11.0 | 0.00 | 0.00 | 0.00 | 22 | 1019.4 |
| 20260902202959 | 89 | 80 | 4.0 | 11.0 | 0.00 | 0.00 | 0.00 | 23 | 1019.4 |
| 20260902202952 | 89 | 56 | 4.0 | 11.0 | 0.00 | 0.00 | 0.00 | 23 | 1019.4 |
| 20260902202749 | 89 | 148 | 4.0 | 11.0 | 0.00 | 0.00 | 0.00 | 22 | 1019.3 |
| 20260902202601 | 89 | 66 | 4.0 | 11.0 | 0.00 | 0.00 | 0.00 | 22 | 1019.4 |
| 20260902202447 | 88 | 159 | 5.0 | 12.0 | 0.00 | 0.00 | 0.00 | 22 | 1019.6 |
| 20260902202246 | 88 | 161 | 5.0 | 12.0 | 0.00 | 0.00 | 0.00 | 24 | 1019.6 |
| 20260902202038 | 88 | 146 | 6.0 | 12.0 | 0.00 | 0.00 | 0.00 | 25 | 1019.6 |
| 20260902201939 | 88 | 132 | 6.0 | 12.0 | 0.00 | 0.00 | 0.00 | 23 | 1019.7 |
| 20260902201914 | 88 | 96 | 6.0 | 12.0 | 0.00 | 0.00 | 0.00 | 23 | 1019.7 |
| 20260902201837 | 88 | 101 | 6.0 | 12.0 | 0.00 | 0.00 | 0.00 | 23 | 1019.7 |
| 20260902201734 | 88 | 115 | 6.0 | 12.0 | 0.00 | 0.00 | 0.00 | 23 | 1019.7 |
| 20260902201629 | 87 | 121 | 5.0 | 12.0 | 0.00 | 0.00 | 0.00 | 23 | 1019.7 |
| 20260902201529 | 87 | 115 | 5.0 | 12.0 | 0.00 | 0.00 | 0.00 | 24 | 1019.7 |
| 20260902201429 | 87 | 113 | 5.0 | 12.0 | 0.00 | 0.00 | 0.00 | 23 | 1019.7 |
| 20260902201407 | 87 | 105 | 5.0 | 12.0 | 0.00 | 0.00 | 0.00 | 23 | 1019.7 |
| 20260902201329 | 87 | 85 | 6.0 | 12.0 | 0.00 | 0.00 | 0.00 | 21 | 1019.7 |
| 20260902201228 | 87 | 100 | 7.0 | 12.0 | 0.00 | 0.00 | 0.00 | 21 | 1019.8 |
| 20260902201123 | 87 | 78 | 7.0 | 13.0 | 0.00 | 0.00 | 0.00 | 22 | 1019.8 |
| 20260902201022 | 87 | 78 | 7.0 | 13.0 | 0.00 | 0.00 | 0.00 | 22 | 1019.8 |
| 20260902200923 | 87 | 35 | 7.0 | 13.0 | 0.00 | 0.00 | 0.00 | 22 | 1019.9 |
| 20260902200901 | 87 | 34 | 7.0 | 13.0 | 0.00 | 0.00 | 0.00 | 22 | 1019.9 |
| 20260902200823 | 87 | 105 | 7.0 | 15.0 | 0.00 | 0.00 | 0.00 | 22 | 1019.9 |
| 20260902200722 | 87 | 95 | 7.0 | 15.0 | 0.00 | 0.00 | 0.00 | 23 | 1019.8 |
| 20260902200617 | 87 | 88 | 7.0 | 15.0 | 0.00 | 0.00 | 0.00 | 23 | 1019.8 |
| 20260902200516 | 87 | 105 | 7.0 | 15.0 | 0.00 | 0.00 | 0.00 | 23 | 1019.9 |
| 20260902200417 | 87 | 85 | 7.0 | 15.0 | 0.00 | 0.00 | 0.00 | 23 | 1019.9 |
| 20260902200356 | 87 | 76 | 7.0 | 15.0 | 0.00 | 0.00 | 0.00 | 23 | 1019.9 |
| 20260902200317 | 87 | 82 | 6.0 | 15.0 | 0.00 | 0.00 | 0.00 | 23 | 1019.9 |
| 20260902200216 | 87 | 98 | 6.0 | 15.0 | 0.00 | 0.00 | 0.00 | 23 | 1019.9 |
| 20260902200110 | 87 | 11 | 6.0 | 15.0 | 0.00 | 0.00 | 0.00 | 23 | 1019.8 |
| 20260902200010 | 87 | 53 | 6.0 | 15.0 | 0.00 | 0.00 | 0.00 | 23 | 1019.8 |
| 20260902195912 | 87 | 84 | 5.0 | 15.0 | 0.00 | 0.00 | 0.00 | 24 | 1019.9 |
| 20260902195849 | 87 | 38 | 5.0 | 15.0 | 0.00 | 0.00 | 0.00 | 24 | 1019.9 |
| 20260902195811 | 87 | 110 | 5.0 | 12.0 | 0.00 | 0.00 | 0.00 | 22 | 1019.9 |
| 20260902195724 | 87 | 59 | 5.0 | 12.0 | 0.00 | 0.00 | 0.00 | 22 | 1019.9 |
| 20260902195409 | 87 | 108 | 6.0 | 12.0 | 0.00 | 0.00 | 0.00 | 24 | 1019.9 |
| 20260902195343 | 87 | 89 | 6.0 | 12.0 | 0.00 | 0.00 | 0.00 | 23 | 1019.9 |
| 20260902195311 | 87 | 49 | 6.0 | 13.0 | 0.00 | 0.00 | 0.00 | 23 | 1019.9 |
| 20260902195102 | 87 | 74 | 7.0 | 13.0 | 0.00 | 0.00 | 0.00 | 23 | 1020.0 |
| 20260902195051 | 87 | 109 | 7.0 | 13.0 | 0.00 | 0.00 | 0.00 | 22 | 1020.0 |
| 20260902194805 | 87 | 121 | 8.0 | 13.0 | 0.00 | 0.00 | 0.00 | 21 | 1020.2 |
| 20260902194601 | 87 | 167 | 8.0 | 14.0 | 0.00 | 0.00 | 0.00 | 22 | 1020.2 |
| 20260902194353 | 87 | 97 | 8.0 | 14.0 | 0.00 | 0.00 | 0.00 | 21 | 1020.2 |
| 20260902194331 | 87 | 98 | 7.0 | 14.0 | 0.00 | 0.00 | 0.00 | 23 | 1020.2 |
| 20260902194252 | 87 | 129 | 7.0 | 14.0 | 0.00 | 0.00 | 0.00 | 22 | 1020.2 |
| 20260902194153 | 87 | 136 | 7.0 | 14.0 | 0.00 | 0.00 | 0.00 | 22 | 1020.3 |
| 20260902194049 | 87 | 67 | 7.0 | 14.0 | 0.00 | 0.00 | 0.00 | 23 | 1020.2 |
| 20260902193947 | 87 | 66 | 7.0 | 14.0 | 0.00 | 0.00 | 0.00 | 23 | 1020.3 |
| 20260902193847 | 87 | 66 | 7.0 | 14.0 | 0.00 | 0.00 | 0.00 | 22 | 1020.3 |
| 20260902193826 | 87 | 90 | 7.0 | 14.0 | 0.00 | 0.00 | 0.00 | 22 | 1020.3 |
| 20260902193747 | 87 | 74 | 7.0 | 14.0 | 0.00 | 0.00 | 0.00 | 22 | 1020.3 |
| 20260902193646 | 87 | 95 | 7.0 | 14.0 | 0.00 | 0.00 | 0.00 | 23 | 1020.3 |
| 20260902193541 | 87 | 80 | 7.0 | 14.0 | 0.00 | 0.00 | 0.00 | 23 | 1020.3 |
| 20260902193447 | 87 | 106 | 7.0 | 14.0 | 0.00 | 0.00 | 0.00 | 23 | 1020.3 |
| 20260902193320 | 87 | 100 | 7.0 | 14.0 | 0.00 | 0.00 | 0.00 | 24 | 1020.3 |
| 20260902193241 | 87 | 68 | 7.0 | 14.0 | 0.00 | 0.00 | 0.00 | 24 | 1020.3 |
| 20260902193140 | 87 | 86 | 7.0 | 14.0 | 0.00 | 0.00 | 0.00 | 24 | 1020.3 |
| 20260902193035 | 87 | 55 | 8.0 | 14.0 | 0.00 | 0.00 | 0.00 | 23 | 1020.3 |
| 20260902192935 | 87 | 102 | 8.0 | 14.0 | 0.00 | 0.00 | 0.00 | 24 | 1020.3 |
| 20260902192835 | 87 | 112 | 8.0 | 14.0 | 0.00 | 0.00 | 0.00 | 23 | 1020.3 |
| 20260902192814 | 87 | 80 | 8.0 | 14.0 | 0.00 | 0.00 | 0.00 | 24 | 1020.3 |
| 20260902192734 | 87 | 76 | 7.0 | 14.0 | 0.00 | 0.00 | 0.00 | 24 | 1020.4 |
| 20260902192640 | 87 | 87 | 7.0 | 14.0 | 0.00 | 0.00 | 0.00 | 24 | 1020.3 |
| 20260902192433 | 87 | 141 | 7.0 | 12.0 | 0.00 | 0.00 | 0.00 | 24 | 1020.4 |
| 20260902192414 | 87 | 111 | 6.0 | 12.0 | 0.00 | 0.00 | 0.00 | 24 | 1020.4 |
| 20260902192230 | 87 | 104 | 7.0 | 12.0 | 0.00 | 0.00 | 0.00 | 23 | 1020.5 |
| 20260902192128 | 87 | 104 | 6.0 | 12.0 | 0.00 | 0.00 | 0.00 | 24 | 1020.4 |
| 20260902192025 | 87 | 97 | 6.0 | 12.0 | 0.00 | 0.00 | 0.00 | 25 | 1020.4 |
| 20260902191923 | 87 | 129 | 7.0 | 12.0 | 0.00 | 0.00 | 0.00 | 25 | 1020.5 |
| 20260902191823 | 87 | 105 | 7.0 | 14.0 | 0.00 | 0.00 | 0.00 | 24 | 1020.5 |
| 20260902191801 | 86 | 92 | 7.0 | 14.0 | 0.00 | 0.00 | 0.00 | 24 | 1020.5 |
| 20260902191723 | 86 | 131 | 7.0 | 14.0 | 0.00 | 0.00 | 0.00 | 24 | 1020.4 |
| 20260902191622 | 86 | 161 | 7.0 | 14.0 | 0.00 | 0.00 | 0.00 | 24 | 1020.5 |
| 20260902191525 | 87 | 110 | 8.0 | 14.0 | 0.00 | 0.00 | 0.00 | 23 | 1020.5 |
| 20260902191319 | 86 | 138 | 8.0 | 14.0 | 0.00 | 0.00 | 0.00 | 23 | 1020.5 |
| 20260902191256 | 86 | 119 | 8.0 | 14.0 | 0.00 | 0.00 | 0.00 | 24 | 1020.5 |
| 20260902191218 | 86 | 117 | 8.0 | 14.0 | 0.00 | 0.00 | 0.00 | 24 | 1020.5 |
| 20260902191116 | 86 | 105 | 8.0 | 14.0 | 0.00 | 0.00 | 0.00 | 23 | 1020.5 |
| 20260902191017 | 87 | 114 | 8.0 | 14.0 | 0.00 | 0.00 | 0.00 | 23 | 1020.5 |
| 20260902190810 | 87 | 80 | 7.0 | 14.0 | 0.00 | 0.00 | 0.00 | 24 | 1020.6 |
| 20260902190750 | 87 | 97 | 7.0 | 14.0 | 0.00 | 0.00 | 0.00 | 24 | 1020.6 |
| 20260902190711 | 87 | 107 | 6.0 | 14.0 | 0.00 | 0.00 | 0.00 | 24 | 1020.5 |
| 20260902190610 | 87 | 76 | 6.0 | 14.0 | 0.00 | 0.00 | 0.00 | 25 | 1020.6 |
| 20260902190505 | 87 | 110 | 5.0 | 14.0 | 0.00 | 0.00 | 0.00 | 24 | 1020.6 |
| 20260902190404 | 87 | 100 | 5.0 | 14.0 | 0.00 | 0.00 | 0.00 | 24 | 1020.6 |
| 20260902190316 | 87 | 132 | 5.0 | 14.0 | 0.00 | 0.00 | 0.00 | 25 | 1020.7 |
| 20260902190308 | 87 | 101 | 4.0 | 14.0 | 0.00 | 0.00 | 0.00 | 25 | 1020.7 |
| 20260902190104 | 86 | 115 | 4.0 | 9.0 | 0.00 | 0.00 | 0.00 | 24 | 1020.6 |
| 20260902185958 | 86 | 105 | 4.0 | 8.0 | 0.00 | 0.00 | 0.00 | 26 | 1020.7 |
| 20260902185859 | 87 | 125 | 3.0 | 8.0 | 0.00 | 0.00 | 0.00 | 25 | 1020.7 |
| 20260902185845 | 87 | 69 | 3.0 | 8.0 | 0.00 | 0.00 | 0.00 | 24 | 1020.7 |
| 20260902185700 | 87 | 51 | 3.0 | 8.0 | 0.00 | 0.00 | 0.00 | 23 | 1020.7 |
| 20260902185558 | 87 | 60 | 3.0 | 8.0 | 0.00 | 0.00 | 0.00 | 24 | 1020.7 |
| 20260902185500 | 87 | 69 | 3.0 | 8.0 | 0.00 | 0.00 | 0.00 | 25 | 1020.9 |
| 20260902185253 | 87 | 90 | 4.0 | 8.0 | 0.00 | 0.00 | 0.00 | 25 | 1020.9 |
| 20260902185231 | 87 | 95 | 3.0 | 9.0 | 0.00 | 0.00 | 0.00 | 25 | 1020.9 |
| 20260902185152 | 87 | 79 | 3.0 | 9.0 | 0.00 | 0.00 | 0.00 | 25 | 1020.9 |
| 20260902185052 | 87 | 96 | 3.0 | 9.0 | 0.00 | 0.00 | 0.00 | 26 | 1020.7 |
| 20260902184951 | 87 | 145 | 4.0 | 12.0 | 0.00 | 0.00 | 0.00 | 26 | 1020.9 |
| 20260902184851 | 86 | 39 | 5.0 | 13.0 | 0.00 | 0.00 | 0.00 | 24 | 1020.9 |
| 20260902184753 | 87 | 71 | 6.0 | 14.0 | 0.00 | 0.00 | 0.00 | 24 | 1020.9 |
| 20260902184546 | 87 | 38 | 6.0 | 14.0 | 0.00 | 0.00 | 0.00 | 24 | 1021.0 |
| 20260902184441 | 86 | 78 | 6.0 | 14.0 | 0.00 | 0.00 | 0.00 | 25 | 1021.0 |
| 20260902184341 | 86 | 107 | 7.0 | 14.0 | 0.00 | 0.00 | 0.00 | 24 | 1021.0 |
| 20260902184240 | 86 | 113 | 7.0 | 14.0 | 0.00 | 0.00 | 0.00 | 27 | 1021.0 |
| 20260902184219 | 86 | 146 | 7.0 | 14.0 | 0.00 | 0.00 | 0.00 | 27 | 1021.0 |
| 20260902184140 | 86 | 102 | 7.0 | 14.0 | 0.00 | 0.00 | 0.00 | 29 | 1021.0 |
| 20260902184041 | 86 | 131 | 6.0 | 14.0 | 0.00 | 0.00 | 0.00 | 25 | 1021.0 |
| 20260902183943 | 86 | 106 | 5.0 | 14.0 | 0.00 | 0.00 | 0.00 | 24 | 1021.0 |
| 20260902183820 | 87 | 113 | 5.0 | 11.0 | 0.00 | 0.00 | 0.00 | 25 | 1021.0 |
| 20260902183637 | 87 | 98 | 5.0 | 11.0 | 0.00 | 0.00 | 0.00 | 25 | 1021.0 |
| 20260902183534 | 87 | 123 | 5.0 | 11.0 | 0.00 | 0.00 | 0.00 | 24 | 1021.1 |
| 20260902183430 | 87 | 67 | 5.0 | 11.0 | 0.00 | 0.00 | 0.00 | 26 | 1021.0 |
| 20260902183329 | 87 | 103 | 5.0 | 11.0 | 0.00 | 0.00 | 0.00 | 25 | 1021.0 |
| 20260902183239 | 86 | 94 | 5.0 | 11.0 | 0.00 | 0.00 | 0.00 | 25 | 1021.0 |
| 20260902183232 | 86 | 90 | 5.0 | 11.0 | 0.00 | 0.00 | 0.00 | 25 | 1021.0 |
| 20260902183028 | 86 | 123 | 4.0 | 11.0 | 0.00 | 0.00 | 0.00 | 26 | 1021.1 |
| 20260902182923 | 86 | 120 | 4.0 | 11.0 | 0.00 | 0.00 | 0.00 | 26 | 1021.1 |
| 20260902182829 | 86 | 105 | 4.0 | 11.0 | 0.00 | 0.00 | 0.00 | 29 | 1021.1 |
| 20260902182701 | 86 | 128 | 4.0 | 11.0 | 0.00 | 0.00 | 0.00 | 26 | 1021.2 |
| 20260902182629 | 86 | 102 | 4.0 | 11.0 | 0.00 | 0.00 | 0.00 | 25 | 1021.1 |
| 20260902182417 | 86 | 111 | 4.0 | 11.0 | 0.00 | 0.00 | 0.00 | 26 | 1021.1 |
| 20260902182316 | 85 | 107 | 4.0 | 11.0 | 0.00 | 0.00 | 0.00 | 26 | 1021.2 |
| 20260902182216 | 85 | 113 | 4.0 | 11.0 | 0.00 | 0.00 | 0.00 | 27 | 1021.2 |
| 20260902182156 | 85 | 120 | 4.0 | 11.0 | 0.00 | 0.00 | 0.00 | 27 | 1021.2 |
| 20260902182118 | 85 | 116 | 4.0 | 11.0 | 0.00 | 0.00 | 0.00 | 27 | 1021.2 |
| 20260902182017 | 85 | 95 | 4.0 | 11.0 | 0.00 | 0.00 | 0.00 | 25 | 1021.2 |
| 20260902181810 | 85 | 133 | 5.0 | 11.0 | 0.00 | 0.00 | 0.00 | 25 | 1021.3 |
| 20260902181723 | 85 | 123 | 4.0 | 11.0 | 0.00 | 0.00 | 0.00 | 26 | 1021.5 |
| 20260902181716 | 85 | 117 | 4.0 | 11.0 | 0.00 | 0.00 | 0.00 | 26 | 1021.5 |
| 20260902181510 | 85 | 81 | 4.0 | 12.0 | 0.00 | 0.00 | 0.00 | 26 | 1021.5 |
| 20260902181406 | 85 | 70 | 5.0 | 12.0 | 0.00 | 0.00 | 0.00 | 26 | 1021.5 |
| 20260902181307 | 85 | 90 | 5.0 | 12.0 | 0.00 | 0.00 | 0.00 | 26 | 1021.5 |
| 20260902181206 | 85 | 63 | 5.0 | 12.0 | 0.00 | 0.00 | 0.00 | 26 | 1021.5 |
| 20260902181143 | 85 | 38 | 5.0 | 12.0 | 0.00 | 0.00 | 0.00 | 26 | 1021.5 |
| 20260902181107 | 85 | 63 | 5.0 | 12.0 | 0.00 | 0.00 | 0.00 | 25 | 1021.6 |
| 20260902181004 | 85 | 53 | 5.0 | 12.0 | 0.00 | 0.00 | 0.00 | 26 | 1021.6 |
| 20260902180903 | 85 | 77 | 5.0 | 12.0 | 0.00 | 0.00 | 0.00 | 25 | 1021.6 |
| 20260902180803 | 85 | 93 | 5.0 | 12.0 | 0.00 | 0.00 | 0.00 | 26 | 1021.7 |
| 20260902180713 | 86 | 111 | 5.0 | 12.0 | 0.00 | 0.00 | 0.00 | 25 | 1021.7 |
| 20260902180707 | 86 | 102 | 5.0 | 12.0 | 0.00 | 0.00 | 0.00 | 25 | 1021.6 |
| 20260902180458 | 86 | 67 | 5.0 | 12.0 | 0.00 | 0.00 | 0.00 | 25 | 1021.7 |
| 20260902180401 | 86 | 97 | 5.0 | 12.0 | 0.00 | 0.00 | 0.00 | 26 | 1021.6 |
| 20260902180238 | 86 | 125 | 4.0 | 12.0 | 0.00 | 0.00 | 0.00 | 27 | 1021.6 |
| 20260902180054 | 86 | 68 | 5.0 | 12.0 | 0.00 | 0.00 | 0.00 | 28 | 1021.6 |
| 20260902175952 | 86 | 185 | 5.0 | 12.0 | 0.00 | 0.00 | 0.00 | 31 | 1021.6 |
| 20260902175849 | 86 | 136 | 5.0 | 12.0 | 0.00 | 0.00 | 0.00 | 27 | 1021.7 |
| 20260902175746 | 86 | 132 | 6.0 | 12.0 | 0.00 | 0.00 | 0.00 | 28 | 1021.7 |
| 20260902175646 | 85 | 105 | 6.0 | 12.0 | 0.00 | 0.00 | 0.00 | 30 | 1021.8 |
| 20260902175626 | 85 | 113 | 5.0 | 12.0 | 0.00 | 0.00 | 0.00 | 30 | 1021.8 |
| 20260902175547 | 85 | 92 | 5.0 | 12.0 | 0.00 | 0.00 | 0.00 | 28 | 1021.8 |
| 20260902175446 | 85 | 105 | 5.0 | 12.0 | 0.00 | 0.00 | 0.00 | 28 | 1021.8 |
| 20260902175340 | 85 | 74 | 5.0 | 12.0 | 0.00 | 0.00 | 0.00 | 31 | 1021.8 |
| 20260902175247 | 85 | 126 | 5.0 | 12.0 | 0.00 | 0.00 | 0.00 | 30 | 1021.9 |
| 20260902175120 | 85 | 136 | 6.0 | 12.0 | 0.00 | 0.00 | 0.00 | 27 | 1021.9 |
| 20260902175040 | 85 | 104 | 6.0 | 12.0 | 0.00 | 0.00 | 0.00 | 27 | 1022.0 |
| 20260902174940 | 85 | 136 | 6.0 | 12.0 | 0.00 | 0.00 | 0.00 | 29 | 1022.0 |
| 20260902174835 | 85 | 163 | 5.0 | 12.0 | 0.00 | 0.00 | 0.00 | 29 | 1021.9 |
| 20260902174735 | 85 | 143 | 5.0 | 12.0 | 0.00 | 0.00 | 0.00 | 28 | 1021.9 |
| 20260902174634 | 85 | 112 | 6.0 | 12.0 | 0.00 | 0.00 | 0.00 | 26 | 1021.9 |